List of Articles
번호
제목
글쓴이 날짜 조회수
1367 Promotional Promotion Specialty Youve Waited Long Enough 20858 new FreemanX8499490 2019-01-17 1
1366 California Contractor License Bond 33947 new Pablo8942035714886 2019-01-17 1
1365 Alcoholism: Why Cannot I Cease Drinking? 35480 new VQAMargot850148 2019-01-17 2
1364 Appropriate Tennis Clothing Is Good For The Golf Course Business 28699 new RositaLxu415107 2019-01-17 2
1363 Insects And Pest Control 24541 new Monica70M733486787 2019-01-17 2
1362 Bugs And Pest Control 27548 new KaliEwen4618847372270 2019-01-17 2
1361 Freelance Writer: Discover 1 Today! 24065 new HarlanEstes8228 2019-01-17 2
1360 Use Geothermal Temperature To Truly Save Money On Your Household Heat Costs 21569 new AlfonzoStein935659859 2019-01-17 2
1359 The Ideal Display To Your Successes 27299 new LowellCook756292 2019-01-17 2
1358 The Ideal Show On Your Results 47920 new Martha32M849020634597 2019-01-17 2
1357 Don't Forget Wedding Cards 10800 new ErmelindaDaves312 2019-01-17 2
1356 Making Desert Water More Welcome To Your Home 21072 new JudsonLarcombe8 2019-01-17 2
1355 News And The Web 35981 new JeniferConlan3463201 2019-01-17 3
1354 Oklahoma Real Estate Cowboys And Indians 49802 new StephanWasinger 2019-01-17 2
1353 Secure Pest Control Tips 13037 new AleishaHindmarsh 2019-01-17 3
1352 The Connection Between Reciprocal Links And SEO 29187 new CharlieLasley95 2019-01-17 2
1351 How To Make Your Backlinks Depend I 43877 new PhyllisNaumann95 2019-01-17 3
1350 Using Myspace Protection - Setting Your Page To Personal 17437 new IreneAdkins517813 2019-01-17 2
1349 Real Estate For Sale 18230 new AudraHoughton022292 2019-01-17 2
1348 Your Guide To Temecula Wine Trips 15299 new PennyHare503046688 2019-01-17 2
1347 The Ideal Screen On Your Successes 36600 new HermineKight6852 2019-01-17 2
1346 What's In Your Camping Water? 40705 new CliffordBilliot810 2019-01-17 2
1345 Photography As An Art 13879 new KarinSerna82351036 2019-01-17 2
1344 Safe Pest Control Tips 25441 new AudryHalford1999077 2019-01-17 2
1343 Pests And Insect Control 46561 new ScarlettShivers093 2019-01-17 2
1342 Tips About Choosing The Proper Personal Injury Or Car Accident Lawyer 41611 new LeonoreSimonson 2019-01-16 2
1341 Picnic Backpack: Why You Should Do It. 13043 new BlaineF65459662112 2019-01-16 3
1340 Dont Rely Extremely On Appraisals 37684 new RonnieFairfield95036 2019-01-16 2
1339 Best Tips For Writing A Great How-To Report 37381 new EmilioCaraway482119 2019-01-16 2
1338 Your Information To Temecula Wine Trips 38640 new RickeyGannon4240077 2019-01-16 2
1337 Dirk Goes Wild And Suns Fail To Cover! 47032 new JohnnyMacghey0118313 2019-01-16 2
1336 Ornamental Painting Book For Beginner As Well As For Professional 27777 new APEMaryann13765155 2019-01-16 3
1335 Bugs And Pest Control 32254 new KoreyFoutch1301202 2019-01-16 2
1334 News And The Web 12053 new PattiUpchurch45697 2019-01-16 2
1333 Possibilities To Combine Credit Card Debt 45836 new QuintonMathias266860 2019-01-16 2
1332 How Effective Is Debt Consolidation With Credit Card? 46266 new AlphonsoRivero4776 2019-01-16 2
1331 Using MySpace Codes To Enhance Your MySpace Page 18157 new GarrettBurrows89 2019-01-16 3
1330 Alabama Mortgage - What To Expect When Acquiring A Property In Alabama 30030 new FelicaTerpstra8 2019-01-16 3
1329 Criminal Defense Attorneys 42511 new LuigiMitchel468324 2019-01-16 2
1328 Alabama Mortgage - What To Expect When Acquiring A Property In Alabama 49793 new MiguelShah711102487 2019-01-16 2
1327 Secure Pest Control Tips 19262 new BrettMadrigal836554 2019-01-16 3
1326 Criminal Defense Solicitors 33538 new AugustusBradshaw7 2019-01-16 2
1325 Making Your Backlinks Count I 23402 new JacelynMccain2241 2019-01-16 2
1324 Options To Combine Credit Card Debt 10877 new DarbyDrakeford089261 2019-01-16 2
1323 Plumbing Dilemmas Might Require A Plumbing Specialist 10187 new JillianMack45533 2019-01-16 3
1322 Buying Expired Domains For PR, Does It Still Work? 46180 new AntoniaAtchley6951 2019-01-16 3
1321 Article Clients: And Writing When Things Do Not Workout 40892 new BrittnyMcmullen 2019-01-16 2
1320 Booster Seats: Safety First 18119 new Berniece1067843536116 2019-01-16 2
1319 How To Choose The Perfect Wedding Dress 40291 new CHUNila33445786322 2019-01-16 2
1318 If The Stocks Start Off At Just Below A Dollar, How Can An Investor Hope To Turn Into Wealthy In The End? 29628 new KristoferWithnell0 2019-01-16 3
1317 Using Myspace Safety - Setting Your Report To Personal 27125 new RayfordWinter644 2019-01-16 3
1316 Understanding And Using Myspace Privacy Settings 43711 new SergioMighell1699 2019-01-16 3
1315 Utilizing Wordpress As A Content Material Management Method Or CMS 23124 new KentWainscott48374 2019-01-16 3
1314 Bistro Voucher Special Saving On Junk Food 47510 new TammaraCastles8 2019-01-16 2
1313 The Perfect Screen For Your Successes 17022 new ConsueloCyr33093 2019-01-16 2
1312 Safe Pest Control Tips 49858 new WilbertDuFaur32 2019-01-16 2
1311 Burbank Florida Property 11210 new Halina72422924935142 2019-01-16 3
1310 Real Estate For Sale 31256 new MariaWilkins458561 2019-01-16 3
1309 Wholesale Nike Air Force 1 Footwear 24220 new PatsyEsposito7122 2019-01-16 2
1308 Use Geothermal Heat To Save Money On Your Home Warming Costs 14298 new AshleighSummers929 2019-01-16 3
1307 Secure Pest Control Tips 46102 new KandisMeza5094693 2019-01-16 3
1306 Burbank California Property 26568 new LetaWinstead681 2019-01-16 2
1305 Real Estate For Sale 24515 new NormandEdmiston5423 2019-01-16 2
1304 Your Guide To Temecula Wine Trips 14605 new GlenCelestine94 2019-01-16 2
1303 Dirk Goes Wild And Suns Fail To Address! 34671 new ShirleenMcGlinn2 2019-01-16 3
1302 News And The Net 44494 new BridgetteDemers45 2019-01-16 3
1301 The Solution Of Sobriety 45593 new ToshaWinn050225805 2019-01-16 3
1300 How Sick People Get Better Rest 14524 new LaureneCantero458 2019-01-16 3
1299 Tips For Travelers Who Are Going To Hong Kong 14217 new AndraEdgley9788985 2019-01-16 3
1298 Why Cost-free Credit Card Debt Consolidation? 43576 new OliviaS99298095 2019-01-16 3
1297 8 Steps To Facebook Adventure 32952 new DeePereira9006437342 2019-01-16 2
1296 Tips On Shipping Your Motorcycle 17993 new JoseE3857715486460 2019-01-16 3
1295 Minnesota True Estate The Nature Of Water 44035 new LavinaWxl730483 2019-01-16 3
1294 San Diego Harbor Bay Tour 36777 new NatishaSilverman 2019-01-16 2
1293 Secure Pest Control Tips 24848 new CathleenEnnis74 2019-01-16 2
1292 Error Authenticating. Either Bad Username/Password Or Your Account Has Outstanding Payments Due 33527 new AmbroseFlorance 2019-01-16 2
1291 The Right Show For Your Results 34629 new ErlindaMckenna278205 2019-01-16 2
1290 The Right Show For Your Results 24750 new RosettaGerald612 2019-01-16 2
1289 Repair My Credit I Dont Know Where To Start 22052 new IsidroTyrell2732606 2019-01-16 2
1288 Dallas Car new BrigetteX345676581 2019-01-16 3
1287 An Ideal Display For The Successes 24302 new Jacob30V834585704743 2019-01-16 3
1286 Restaurant Discount Coupon Special Minimizing Convenience Food 17189 new RalphPenrod7797 2019-01-16 2
1285 Photography As An Art 38695 new Megan0377618937149 2019-01-16 2
1284 Employing Wordpress As A Content Management System Or CMS 47014 new Greg45W89712171925 2019-01-16 3
1283 Repair My Credit I Dont Know Wherever To Start 18526 new HattieDick84638923 2019-01-16 2
1282 San Diego Harbor Bay Tour 38550 new WCMCharli7667988 2019-01-16 3
1281 San Diego Harbor Bay Tour 15012 new KarinaBelton34701346 2019-01-16 2
1280 News And The World Wide Web 23898 new RethaSparrow847493568 2019-01-16 4
1279 Error Authenticating. Either Bad Username/Password Or Your Account Has Outstanding Payments Due 43905 new FrancineKelley03007 2019-01-16 2
1278 Your Manual To Temecula Wine Trips 42612 new BeatrizMacLaurin18 2019-01-16 3
1277 Promotional Promotion Specialty Youve Waited Long Enough 17539 new AndraBagley69273 2019-01-16 2
1276 A Promise Ought To Be Forever: Titanium Promise Rings 43963 new RaeMccaffrey8948 2019-01-16 2
1275 Dont Rely Excessively On Appraisals 22328 new ShawneeOwm234652 2019-01-16 2
1274 Google PageRank Toolbar Explained 35615 new AntoinetteFoskett 2019-01-16 3
1273 Plumbing Issues May Possibly Require A Plumbing Builder 32936 new MagdalenaWentworth31 2019-01-16 3
1272 Divorce Mediation 11956 new MickeyDoe726596 2019-01-16 3
1271 News And The Web 18863 new JeroldDietrich498 2019-01-16 2
1270 Enhance Your Dental Health With The Following Information!It's Time To Locate 24255 new StarlaHoleman2478 2019-01-16 2
1269 Secure Pest Control Tips 30537 new GeorgiaHendrickson90 2019-01-16 4
1268 Repair My Credit I Dont Know Wherever To Start 40751 new Xavier45X04665928 2019-01-16 4
1267 Liquor Treatment Therapy In California 24441 new CorinneVargas619607 2019-01-16 4
1266 Pests And Pest Control 45908 new ShannanWellish48799 2019-01-16 3
1265 Bugs And Pest Control 28775 new AlizaColburn8553 2019-01-16 2
1264 Coloring Your Hair 29600 new PollyDominquez76 2019-01-16 4
1263 CAPITAL An ACTUAL ESTATE INVESTMENT 23660 new LashawndaBullock601 2019-01-16 6
1262 News And The Net 38713 new Reagan1621910922 2019-01-16 3
1261 The Global Battery Business Powerhouse Going Strong 43094 new BernardoSteinman2482 2019-01-16 4
1260 Safe Pest Control Tips 40102 new MelodeeSorensen7 2019-01-16 3
1259 Right Tennis Dress Is Good For The Golf Course Place 11566 new BonitaMoore724854 2019-01-16 2
1258 Remaining Debt Cost-free Right After You Consolidate Bills And Get Rid Of Your Debt 46197 new MeriStarr873584429 2019-01-16 2
1257 Good Items To Know About Dubai 31242 new AmbroseTroupe651479 2019-01-16 2
1256 Repair My Credit I Dont Know Where To Start 33775 new WilfredRedfern2 2019-01-16 3
1255 Knowledge And Using Myspace Privacy Settings 44612 new EdmundoFerrier15241 2019-01-16 2
1254 Binge Drinking: A Sober Risk For Teenagers 10321 new ShirleenHildebrand82 2019-01-16 3
1253 Pests And Insect Control 31867 new JerrodQuintanilla 2019-01-16 2
1252 Safe Pest Control Tips 34346 new Walter5032188455254 2019-01-16 3
1251 The Perfect Show For Your Results 47766 new FaustoPaquin59181393 2019-01-16 3
1250 Your Information To Temecula Wine Tours 27828 new DianeMcCloughry5267 2019-01-16 4
1249 Google PageRank Toolbar Explained 37847 new TessaMarryat624930 2019-01-16 3
1248 An Ideal Display On Your Achievements 13328 new XBZSolomon607057 2019-01-16 3
1247 Making Leave Water More Palatable For The Home 30673 new MarcelinoChesser 2019-01-16 2
1246 The Right Display For Your Achievements 16023 new EnriquetaWolken071 2019-01-16 4
1245 Plumbing Issues May Possibly Demand A Plumbing Builder 16224 new Edgardo3850712028 2019-01-16 3
1244 Coloring Your Hair 38898 new HeribertoRitchey989 2019-01-16 2
1243 Dont Rely Exceptionally On Appraisals 28443 new EveretteBoe7143 2019-01-16 3
1242 Confused About Google's Catalog, Url Dampening, & No. Of Links? 42420 new VeolaFix444794350075 2019-01-16 4
1241 Repair My Credit I Dont Know Where To Start 14737 new CarrollH426966628321 2019-01-16 2
1240 Your Information To Temecula Wine Trips 49828 new KerrySamples433 2019-01-16 3
1239 Bowling Ensemble That Suits You 26004 new MckenzieBaez033463 2019-01-16 4
1238 The Significance Of Electrical Grounding Of Mobile Cranes 37838 new ErvinHuynh68214 2019-01-16 2
1237 Safe Pest Control Tips 35380 new BrittneyCogburn1 2019-01-16 3
1236 Criminal Defense Solicitors 38654 new Stacie3883549140 2019-01-16 4
1235 Insects And Pest Control 30978 new TanishaNewbery4258 2019-01-16 4
1234 An Ideal Screen On Your Achievements 26816 new ChristopherMadewell 2019-01-16 3
1233 The Perfect Wedding Dress For The Bride 16540 new KieranWilks92689 2019-01-16 3
1232 Don't Forget Anniversary Cards 29132 new CharlaRockwell994 2019-01-16 2
1231 Popular Girls Valentines Morning Items 23108 new LoreenBoose0349010 2019-01-16 3
1230 Alcohol Treatment Therapy In California 49459 new ShelleyConnah06 2019-01-16 2
1229 Photography As An Art 29862 new YasminIngamells891 2019-01-16 3
1228 News And The World Wide Web 49397 new WayneCouture8386575 2019-01-16 3
1227 California Contractor License Bond 29855 new AthenaMosley69212 2019-01-16 5
1226 See Who's Linking For Your Requirements In The Blogosphere 34232 new Lloyd04O494857365 2019-01-16 4
1225 Secure Pest Control Tips 18568 new JulianneFults83 2019-01-16 3
1224 Promotional Marketing Niche Youve Waited Long Enough 19463 new MaritaJager3275 2019-01-16 2
1223 Repair My Credit I Dont Know Where To Start 21311 new GildaB29106247112048 2019-01-16 2
1222 Confused About Google's Catalog, Link Dampening, & No. Of Links? 34573 new JacquelineSla79319172 2019-01-16 3
1221 How Exactly To Choose The Perfect Wedding Dress 15217 new CyrilVgw90132465 2019-01-16 4
1220 Do Not Forget Wedding Cards 48122 new GNRRosalinda85306 2019-01-16 4
1219 Safe Pest Control Tips 24898 new CornellGlasgow11 2019-01-16 2
1218 Real Estate For Sale 36860 new KimberleyBurd073 2019-01-16 2
1217 California Contractor License Bond 13509 new SolSalo895000168124 2019-01-16 3
1216 Safe Pest Control Tips 22376 new RachaelTritt330067 2019-01-16 2
1215 The Perfect Display On Your Successes 46839 new ChasityQ093697153028 2019-01-16 3
1214 Oklahoma Real Estate Cowboys And Indians 20173 new Latonya32J96352421761 2019-01-16 3
1213 Liquor Treatment Therapy In California 46260 new ShariCattanach382 2019-01-16 2
1212 San Diego Harbor Bay Tour 20616 new JimmieFerri935545530 2019-01-16 2
1211 Finding And Adding A Cool Profile Lay-out 48170 new HunterScollen301 2019-01-16 2
1210 Safe Pest Control Tips 38230 new TrevorZimmer23585 2019-01-16 2
1209 Using Myspace Safety - Placing Your Page To Private 27830 new PercySteadman0078 2019-01-16 3
1208 The Right Screen On Your Achievements 15587 new AnthonyJenks35059 2019-01-16 3
1207 Your Information To Temecula Wine Trips 44811 new Breanna65209282605 2019-01-16 2
1206 Secure Pest Control Tips 40250 new RoseannT538800264419 2019-01-16 2
1205 Picnic Backpack: Why You Need To Go For It. 49772 new CharlaCzs39356982144 2019-01-16 5
1204 Do Not Forget Wedding Cards 41934 new TessaBraxton672695627 2019-01-16 3
1203 Alcohol Treatment Therapy In California 31213 new KatieFitzRoy8306 2019-01-16 4
1202 Picnic Backpack: Why You Ought To Go For It. 43920 new SangHoch00103232 2019-01-16 2
1201 Understanding And Using Myspace Privacy Settings 37470 new JudiTcx456566486815 2019-01-16 4
1200 News And The World Wide Web 33971 new MelodyReymond755150 2019-01-16 2
1199 News And The Net 10735 new AnnePape090483356852 2019-01-16 2
1198 Coloring Your Hair 26582 new AlisonBarkly059915472 2019-01-16 3
1197 The Significance Of Electrical Grounding Of Mobile Cranes 42903 new EthanCarrol834450 2019-01-16 3
1196 Dirk Goes Wild And Suns Neglect To Include! 17545 new EvonneRadecki260670 2019-01-16 2
1195 Repair My Credit I Dont Know Where To Start 19581 new LaurenStansfield268 2019-01-16 3
1194 Popular Girls Valentines Time Gifts 18077 new RomaPage8609533 2019-01-16 4
1193 If The Stocks Start At Just Beneath A Dollar, How Can An Investor Hope To Grow To Be Wealthy In The Finish? 18994 new DoyleCharbonneau021 2019-01-16 3
1192 Webmasters Answer For Online Coupons Technology 48729 new TerrenceHilliard790 2019-01-16 5
1191 How To Explode Targeted Traffic To Your Site For Free Of Charge 17984 new MarissaWeed185507 2019-01-16 3
1190 Repair My Credit I Dont Know Wherever To Start 14509 new JosefaTruitt39626347 2019-01-16 3
1189 Bugs And Bug Control 13673 new JeniferPlante434802 2019-01-16 3
1188 Oklahoma Property Cowboys And Indians 44485 new WadeB3271102631 2019-01-16 3
1187 Secure Pest Control Tips 13557 new OscarYee9110912808 2019-01-16 3
1186 The Right Display For Your Achievements 42454 new CiaraHayner731257298 2019-01-16 3
1185 Insects And Insect Control 17474 new AlyciaValley89792 2019-01-16 4
1184 The Significance Of Electrical Grounding Of Mobile Cranes 40392 new RebeccaN61416343818 2019-01-16 2
1183 Photography As An Art 37517 new BethWortham7863826 2019-01-16 3
1182 The Right Show For The Accomplishments 31143 new Harry76F8373768173 2019-01-16 3
1181 The Perfect Show To Your Results 18785 new DJMVerlene93943033 2019-01-16 3
1180 Pests And Insect Control 36110 new ArlieMcNab83787108458 2019-01-16 3
1179 Luxurious Holidays In The Maldives At The Angsana Resort At Ihuru 23067 new WallyBackhaus4166 2019-01-16 2
1178 Catalog Funds Explained 29319 new ReinaSebastian80 2019-01-16 5
1177 Secure Pest Control Tips 42498 new RodgerAshby9794 2019-01-16 2
1176 How To Explode Traffic To Your Web Site For Free 29302 new RamiroPalmore48 2019-01-16 3
1175 Criminal Defense Solicitors 13202 new Blanche66N8673767 2019-01-16 4
1174 Alabama Mortgage - What To Expect When Buying A House In Alabama 31437 new MargaretaHiggins6 2019-01-16 2
1173 Insects And Bug Control 49028 new WyattMcLamb186529935 2019-01-16 4
1172 See Who's Linking For You Within The Blogosphere 24783 new KristanMead42943654 2019-01-16 3
1171 Having A Public Record Bankruptcy 14530 new LidaCreech83159 2019-01-16 3
1170 Divorce Mediation 44201 new AKDJeanna7884221 2019-01-16 2
1169 Don't Forget Anniversary Cards 31712 new JimGebhardt54225 2019-01-16 5
1168 If The Stocks Start At Just Beneath A Dollar, How Can An Investor Hope To Turn Out To Be Rich In The End? 39024 new BeulahHampton02994 2019-01-16 3
1167 Minnesota Actual Estate The Nature Of Water 11412 new Dian40F912997547376 2019-01-16 3
1166 Alabama Mortgage - What To Expect When Purchasing A Residence In Alabama 25487 new DonnieCalvin0049905 2019-01-16 2
1165 Divorce Mediation 15430 new AmyM4090075856211 2019-01-16 3
1164 Burbank Florida Real Estate 14187 new JimmyErickson0840723 2019-01-16 3
1163 Flexible Estimation In Math 11437 new AsaW170317607625 2019-01-16 3
1162 Clothing And Gear In Fitness, Activities And Entertainment 22174 new RonnieRivenburg 2019-01-16 3
1161 Repair My Credit I Dont Know Where To Start 34503 new DerekBelt387018 2019-01-16 3
1160 Repair My Credit I Dont Know Wherever To Start 24338 new Marcella54372525440 2019-01-16 3
1159 Saxophone And Its Varieties 41967 new BebeDuck0037986 2019-01-16 5
1158 Versatile Opinion In [e Xn Y] 47699 new MarcelinoMcBeath 2019-01-16 3
1157 Divorce Mediation 20865 new AkilahGreaves0532 2019-01-16 3
1156 Minnesota Genuine Estate The Nature Of Water 24637 new OHQDedra051979758618 2019-01-16 3
1155 The Right Present To Your Results 31683 new MarianaO0203989813 2019-01-16 3
1154 Safe Pest Control Tips 17657 new KariConyers0276 2019-01-16 3
1153 Get Yourself A Massage In Corpus Christi 13490 new GeorgiannaMinnis86 2019-01-16 2
1152 Dallas Car new MeridithNolte75 2019-01-16 3
1151 Safe Pest Control Tips 24087 new HWKKathrin87484 2019-01-16 2
1150 Pests And Bug Control 26750 new ErickaMcclung435626 2019-01-16 3
1149 Picnic Backpack: Why You Ought To Do It Now. 15769 new NiklasStarkey6908 2019-01-16 4
1148 Insects And Bug Control 27693 new GerardoEcuyer2845 2019-01-16 2
1147 Forensic Accounting 40391 new MargoRoseby5314 2019-01-16 3
1146 A Promise Must Be Forever: Titanium Promise Rings 45664 new KennethBeaman4765481 2019-01-16 2
1145 Flexible Estimation In Q 44762 new SherlynSlattery 2019-01-16 2
1144 List Funds Explained 19017 new Florence2789151162 2019-01-16 3
1143 Go Bali, Indonesia 38752 new AllenI847002811 2019-01-16 2
1142 Safe Pest Control Tips 29573 new WillisLea2733389 2019-01-16 3
1141 Safe Pest Control Tips 39601 new DemetraMerlin72 2019-01-16 2
1140 Insects And Pest Control 25175 new MonteLerma161360933 2019-01-16 3
1139 Utilizing Your Home's Equity To Negotiate Debt - Residence Equity Loans For Debt Relief 26810 new SergioRawls734541 2019-01-16 4
1138 Does Your Dress Code Target Flip Flop? 24898 new SvenCamden5021905 2019-01-16 6
1137 How Sick People Get Better Sleep 31336 new AndreasSons07087503 2019-01-16 4
1136 Pests And Pest Control 15433 new AbelCalderone65 2019-01-16 4
1135 Marketing For Coupon Book 15312 new TuyetTindale531882499 2019-01-16 2
1134 Your Guide To Temecula Wine Tours 34897 new NinaHalligan9085 2019-01-16 2
1133 Vital Data Relating To Different Types Of Couch Tuner Obtainable Nowadays new FranciscaSosa9981656 2019-01-16 2
1132 Crucial Information Concerning Various Types Of Vmovee Available Nowadays new BrittnyJessop22819 2019-01-16 2
1131 تور آنتالیا new ThurmanPinkley226578 2019-01-16 2
1130 Online Store Is Mandatory In The Retail Industry new DottyMitten78660 2019-01-16 1
1129 Critical Details Relating To Numerous Types Of Casino Guide Obtainable Now new EstebanSawyers142 2019-01-16 2
1128 Excited About A Quick Movies? You Should Observe This new ChristaKavel141 2019-01-16 2
1127 New Therapy Studied For Sickle Cell Anemia 31094 new CarinaHocking581 2019-01-16 3
1126 Thinking About An Easy Poker Online? You Have To Check Out This new RenePidgeon664726 2019-01-16 2
1125 Injury Attorneys 19003 new ShanaRichey2890 2019-01-16 4
1124 Critical Details Regarding Diverse Sorts Of Youtube Converter Accessible Nowadays new CodyOpitz072959 2019-01-16 5
1123 Finding And Adding A Very Good Profile Layout 31529 new RooseveltLechuga81 2019-01-16 5
1122 Black Hat Search Engine Marketing What Never To Do Or Get Banned 48399 new ConradAkhtar141021 2019-01-16 4
1121 Repair My Credit I Dont Know Where To Start 39813 new CooperUllathorne7847 2019-01-16 5
1120 Getting Poker Guidance In A Poker Forum 47403 new IslaBlaxland458004 2019-01-16 4
1119 Find The Right Real Estate Agent For Your Miami Real Estate Experience 40546 new PQYBrittny07852286914 2019-01-16 4
1118 Secure Pest Control Tips 29734 new StephaineTapp32270 2019-01-16 4
1117 The Ideal Landscape Design Tree 30174 new ShawnHindwood92454 2019-01-16 5
1116 Where To Find Hoc Marketing O Dau Tai Tphcm new MoniqueSaylor015 2019-01-16 5
1115 New Therapy Studied For Sickle Cell Anemia 20529 new CristinaDelarosa325 2019-01-16 2
1114 What Should I Look For When I Obtain A New Home? 10454 new IsabelTyree565939 2019-01-16 3
1113 Greatest Thai Delivery Food Restaurant Las Vegas - Finding And Locating Hot Chinese Food Delivered Very Quick In Vegas Baby 17484 new NilaKimball9610468 2019-01-16 12
1112 Pests And Pest Control 31679 new KerrieOKeefe59552 2019-01-16 3
1111 Plumbing Dilemmas May Require A Plumbing Company 43126 new ChaseMassie6359270 2019-01-16 5
1110 Seniors Could Possibly Get Affordable Additional Health Care Insurance 42614 new GlenHutson4763771 2019-01-16 3
1109 Repair My Credit I Dont Know Wherever To Start 13708 new MatthiasRetzlaff0353 2019-01-16 2
1108 Home Interior Painting 101 49410 new JonSymes798585085252 2019-01-16 4
1107 The Perfect Landscaping Tree 40877 new MarceloF9672443 2019-01-16 4
1106 Repair My Credit I Dont Know Where To Start 36485 new ElanaDonoghue331717 2019-01-16 3
1105 Google PageRank Toolbar Explained 45000 new Shaunte16X07730063 2019-01-16 4
1104 Obtaining The Most From Your Post Submitter Software 43986 new LucyBoone1912294 2019-01-16 2
1103 Adult Day Care Center 15860 new KrystleGullett3651 2019-01-16 2
1102 What Should I Search For When I Obtain A New Home? 33805 new KieraU176776900316 2019-01-16 4
1101 Plumbing Problems May Possibly Require A Plumbing Builder 15618 new HellenHeiden28583524 2019-01-16 4
1100 Retiring Vice Chairman Dominates Ford News 30721 new LupitaSpady785620 2019-01-16 4
1099 Repair My Credit I Dont Know Wherever To Start 48937 new SusannahCorral94 2019-01-16 3
1098 House Internal Painting 101 34316 new WilburGurney829906 2019-01-16 3
1097 The Best Landscaping Plant 48544 new RosariaSchaw25647 2019-01-16 4
1096 Deion Sanders 1989 Draft Morning Picks 30010 new JerrellV4928332461 2019-01-16 4
1095 Your Manual To Temecula Wine Trips 17717 new RolandEarsman276081 2019-01-16 3
1094 Marketing Your House To Homebuyers 13503 new Estelle231044853016 2019-01-16 4
1093 Repair My Credit I Dont Know Where To Start 23463 new SharonWalder170595937 2019-01-16 5
1092 Repair My Credit I Dont Know Wherever To Start 28234 new FaeHeng73615477435 2019-01-16 3
1091 Richard E. Grant: The Actor Con-Artists Hate 20456 new RacheleSisson700150 2019-01-16 3
1090 Cheap Digital Cameras 42605 new AsaWyrick175037117 2019-01-16 5
1089 New Therapy Studied For Sickle Cell Anemia 26226 new DinahRuddell76474591 2019-01-16 3
1088 Wholesale NFL Jerseys Free Shipping 21879_all1_ new JunkoNicholas581 2019-01-16 3
1087 Coping With Drug Addiction In Your Family 26190 new DebraMelson69017011 2019-01-16 4
1086 How To Save Money On The Las Vegas Wedding 13682 new JuanaN632330807 2019-01-16 5
1085 Different Dog Training Collars For Different Methods To Train Your Dog 48106 new ChauMollison44398792 2019-01-16 4
1084 Your Manual To Temecula Wine Tours 15808 new MelodeeGriffin7 2019-01-16 3
1083 Different Dog Education Collars For Different Ways To Train Your Dog 48086 new Tabatha62C106855623 2019-01-16 3
1082 Richard E. Grant: The Actor Con-Artists Hate 48167 new HoseaUux1202299 2019-01-16 2
1081 Seem Inside To Discover How To Breast Enhancement Results 42907 new LynellKaye769905919 2019-01-16 4
1080 Promotional Promotion Specialty Youve Waited Long Enough 40381 new MonroeDrz724593 2019-01-16 2
1079 New Discovery Makes It Possible To Punishment Drug 48413 new WernerKopf687005574 2019-01-16 5
1078 News And The Web 33670 new MiraDulaney2451604 2019-01-16 4
1077 Repair My Credit I Dont Know Where To Start 48995 new DarrylMccreary2 2019-01-16 2
1076 Safe Pest Control Tips 11823 new CristineHirth2398 2019-01-16 5
1075 Laser Hair Removal - Color Of Hair And Skin 22380 new Maximilian74V848 2019-01-16 4
1074 Seniors Could Possibly Get Affordable Supplemental Health Attention Insurance 17543 new Layne51G55155947 2019-01-16 4
1073 Items To Consider When Hiring A York City Limousine 16651 new Melba75F2331980540 2019-01-16 4
1072 Repair My Credit I Dont Know Wherever To Start 10268 new ReneWilkie44773728 2019-01-16 3
1071 Should You Use Credit Counseling Services? 48984 new DeanneDevlin88347 2019-01-16 3
1070 What Should I Try To Find When I Purchase A New Home? 15931 new Antonia88896651057 2019-01-16 4
1069 Buy Facebook Opinions 22835 new TrinaTqg449701538 2019-01-16 6
1068 Computer Repair And Companies Rochester NY 35539 new AldaZ3650778704897936 2019-01-16 6
1067 Repair My Credit I Dont Know Where To Start 45738 new Consuelo3672426 2019-01-16 5
1066 A Mother's Good Reasons For Picking Montessori 19668 new SusannahL938736309899 2019-01-16 2
1065 5 Wonderful Locations To Go Camping In Virginia 20818 new KristinRedmond65 2019-01-16 4
1064 Repair My Credit I Dont Know Wherever To Start 29470 new FDVRolando08852 2019-01-16 3
1063 Activities Jerseys For Everyday Manner 42538 new ClaribelOFlynn1 2019-01-16 5
1062 Safe Pest Control Tips 35494 new MireyaJ2327972545992 2019-01-16 3
1061 Evaluation Shopping When Re-Financing 49332 new MerrillNanson11972 2019-01-16 3
1060 Discovering Treatment With Drug Detox 23493 new HeleneDarwin2619551 2019-01-16 4
1059 Change The Way You Look For Fish Using The GPS-Enabled Humminbird 981 23237 new LourdesPvy72401980367 2019-01-16 4
1058 Secure Pest Control Tips 46663 new RickiePowers8553 2019-01-16 4
1057 Forensic Accounting 10133 new SteveThurman817 2019-01-16 5
1056 Positive Aspects Of Salamba Sirasana 13072 new DiannaFernandes 2019-01-16 3
1055 News And The World Wide Web 48878 new LuzSweet79793851082 2019-01-16 2
1054 Mosquito Control: Alternatives For Your Need 47910 new GreggArndell144107 2019-01-16 5
1053 Preventing The Drug And Alcohol Temptations 49291 new Celsa70H99844442 2019-01-16 4
1052 Get Growth Out Of Your Plants 28845 new StefanieJung5077 2019-01-16 2
1051 Repair My Credit I Dont Know Wherever To Start 10008 new IzettaWahl236412 2019-01-16 4
1050 A Mother's Known Reasons For Choosing Montessori 41299 new SaundraWhitfeld37137 2019-01-16 4
1049 Things To Consider When Hiring A York City Limousine 23899 new DebGoethe568390717724 2019-01-16 4
1048 Getting The Most From Your Article Submitter Software 36326 new DianeE857273868040 2019-01-16 5
1047 The Best Landscaping Tree 37434 new LucindaMusgrave51323 2019-01-16 3
1046 Louisiana Property A French Influence 16953 new OrvilleForro77421 2019-01-16 2
1045 Adult Day Care Center 49756 new GeoffreyV22501441704 2019-01-16 4
1044 Secure Pest Control Tips 22389 new LaraRude28973339 2019-01-16 3
1043 Pools And Safety 46762 new PearleneMullins 2019-01-16 2
1042 Richard E. Grant: The Actor Con-Artists Hate 32400 new TarenLittlefield6 2019-01-16 4
1041 Stopping The Drug And Alcohol Temptations 45114 new TaylorCody9864205352 2019-01-16 3
1040 Should You Use Credit Counseling Services? 47291 new MaybelleCaudle69 2019-01-16 1
1039 Insect Control: Alternatives For Your Need 20747 new MargieZxg9520489 2019-01-16 3
1038 Personal Injury Attorneys 42985 new AYSEmil88629662217376 2019-01-16 2
1037 Get You-tube Views 46614 new ElijahAcosta146970 2019-01-16 3
1036 Thinking About Purchasing A Motorcycle 49506 new HUGSimon81300431 2019-01-16 2
1035 Repair My Credit I Dont Know Where To Start 20192 new DavisMuntz943384698 2019-01-16 3
1034 How To Save Money On A Las Vegas Wedding 19061 new Oliver29F4978003918 2019-01-16 2
1033 Bugs And Bug Control 41296 new Alma21R06199952 2019-01-16 2
1032 10 Suggestions To Keep Your Cleaning Staff Motivated 41498 new LieselottePressley6 2019-01-16 1
1031 Louisiana Property A French Influence 21347 new AmberWalkom08293142 2019-01-16 4
1030 News And The World Wide Web 32240 new SusannahSchnaars7167 2019-01-16 3
1029 New Therapy Studied For Sickle Cell Anemia 45748 new LashayErvin0399302 2019-01-16 2
1028 3 Items To Look For In A Florida Mortgage Company Online 26993 new WhitneyStidham52810 2019-01-16 3
1027 Confused About Google's List, Link Dampening, & No. Of Links? 37234 new IsmaelFelix257142 2019-01-16 2
1026 Injury Lawyers 14336 new Luther10Y8034465 2019-01-16 4
1025 Secure Pest Control Tips 22042 new HilarioLara817051 2019-01-16 4
1024 Mens Underwear The New Sensation 16768 new TammiMcelroy48280 2019-01-16 5
1023 Download Free Puzzles Game 26305 new GladysKur41681116782 2019-01-16 4
1022 5 Excellent Places To Go Camping In Virginia 11422 new VernonShackelford 2019-01-16 3
1021 Why Choose Dallas Cleaning Services By DBM? 32488 new LilianaWestbrook 2019-01-16 4
1020 Household Discount Coupon Book 43194 new DellaWhite919726 2019-01-16 4
1019 New Therapy Studied For Sickle Cell Anemia 36765 new ONYRhea181993130990 2019-01-16 4
1018 New Therapy Studied For Sickle Cell Anemia 20529 new IsobelCorey60278473 2019-01-16 6
1017 Louisiana Real-estate A French Influence 37957 new MaynardAtkins59080 2019-01-16 4
1016 Family Discount Coupon Book 22480 new AsaCandler412442695 2019-01-16 1
1015 Southern Charm In Nashville True Estate 19614 new ReggieXhh9319063677 2019-01-16 5
1014 Bugs And Bug Control 40847 new Waylon28W173384613 2019-01-16 2
1013 Tie The Knot Quickly With Las Vegas Wedding Chapels: Aspect 1 30135 new StellaT417095545385 2019-01-16 4
1012 Repair My Credit I Dont Know Wherever To Start 25806 new ReubenKoehn8041284827 2019-01-16 1
1011 Insect Control: Options For Your Need 36183 new MargaretteLadner406 2019-01-16 3
1010 The Best Landscaping Plant 34331 new HarrietMuskett51862 2019-01-16 1
1009 Promotional Promotion Niche Youve Waited Long Enough 49754 new Hiram07230222063 2019-01-16 4
1008 New Therapy Studied For Sickle Cell Anemia 26226 new KatherinaColley9787 2019-01-16 3
1007 Safe Pest Control Tips 36454 new BrendaApplegate6473 2019-01-16 2
1006 Personal Injury Attorneys 23224 new RickieKavanagh22860 2019-01-16 1
1005 Swimming Pools And Safety 28854 new DustyP090741179 2019-01-16 3
1004 Preventing The Drug And Alcohol Temptations 46420 new DeneseBond84433122 2019-01-16 3
1003 Pests And Pest Control 16866 new MariettaSena6850 2019-01-16 1
1002 Secure Pest Control Tips 34496 new TitusSeptimus2738615 2019-01-16 4
1001 Article Writing And Clients: When Things Don't Workout 42704 new PenniKnott3942269 2019-01-16 5
1000 Believe You Cannot Create Articles? Consider Again! 27895 new ChaunceyRutt24433 2019-01-16 3
999 Insects And Pest Control 48650 new LottieCuster49488273 2019-01-16 5
998 Adult Day Care Center 37231 new AndraSkinner86159903 2019-01-16 4
997 To Use Or Not To Use Google Adwords 38068 new ChelseyGalvin06 2019-01-16 5
996 Personal Injury Lawyers 35422 new DemetriaRey301853820 2019-01-16 2
995 Injury Lawyers 16890 new AmberWillis127843283 2019-01-16 3
994 On The Web Register For Entertainment Coupon Book 13182 new GonzaloWorthen755 2019-01-16 99
993 A Mother's Good Reasons For Choosing Montessori 18204 new TaniaHeady31321058301 2019-01-16 3
992 Major Details Of Buy Oxycontin - What's Required 37215 new MarkusW7773348624673 2019-01-16 2
991 Wedding Vows: Seven Tips For Personalizing Your Own 32341 new BrennaRidenour3117178 2019-01-16 4
990 Plumbing Issues Might Demand A Plumbing Specialist 19269 new MavisGaston477864 2019-01-16 2
989 Southern Charm In Nashville Genuine Estate 11645 new EvelyneKendrick5 2019-01-16 6
988 3 What To Look For In A Florida Mortgage Company On Line 15184 new WarrenAquino843 2019-01-16 2
987 RSS-FEED Distribution Recognized As A Good Search Engine Optimization Relating Campaign 46204 new BillSummy980588 2019-01-16 3
986 Repair My Credit I Dont Know Wherever To Start 33452 new KingAltman8163372 2019-01-16 4
985 Choosing The Most Readily Useful California Home Loan 44741 new HyeOfb642115918545 2019-01-16 2
984 The Dos And Donts When Preparing For Internship 47746 new AdolfoBallinger6370 2019-01-16 1
983 Personal Injury Attorneys 41076 new JaiStruthers65314 2019-01-16 4
982 Safe Pest Control Tips 19991 new NelleCasas79664 2019-01-16 2
981 Governor Schwarzenegger Becomes California To Solar Ceiling Methods 12094 new VeroniquePrentice1 2019-01-16 5
980 On The Web Search For Car 27183 new Dennis45S589290113 2019-01-16 4
979 Computer Fix And Companies Rochester Nyc 36841 new DonettePethebridge09 2019-01-16 3
978 Creating The Content 15725 new RonnyBoas14483599860 2019-01-16 3
977 Marketing Your House To Homebuyers 34429 new Yanira56D14368779 2019-01-16 4
976 Secure Pest Control Tips 39468 new Shelia852428862180704 2019-01-16 5
975 Dildo The Sex Toy Stimulating Peoples Sexual Knowledge. 26678 new UlrikeSnow1225512983 2019-01-16 3
974 Repair My Credit I Dont Know Where To Start 39162 new ShannaCajigas0396 2019-01-16 3
973 How To Explode Site Visitors To Your Web Site For Totally Free 34413 new StephenGpq84425386020 2019-01-16 3
972 Professional Device Vending Whats The Best Way To Get Going? 30766 new BrainCrombie1236 2019-01-16 3
971 Secure Pest Control Tips 14250 new LeonBeardsley24831625 2019-01-16 9
970 Seniors Can Get Affordable Supple-mental Health Treatment Insurance 45436 new ClaribelThibeault0 2019-01-16 5
969 About Free Modest Business Grants 49513 new OWDBrooks5949851203 2019-01-16 5
968 Catalog Funds Explained 42322 new LettieKitterman22 2019-01-16 3
967 Laser Hair Removal - Color Of Hair And Skin 27111 new ShellaThomsen4661203 2019-01-16 6
966 Personal Injury Solicitors 26142 new LavondaMolloy892591 2019-01-16 4
965 The Excellent Landscape Design Tree 21536 new ShawnaOtto142075607 2019-01-16 3
964 Interested In An Instant Paypal Virtual Bank Account? You Need To Discover This new JurgenXpp1378831745 2019-01-16 5
963 Writing For Cash Real Options 15870 new MaxHargis53652764982 2019-01-16 4
962 Find The Correct Real Estate Agent For Your Miami Real Estate Experience 31383 new ConradNarvaez34053 2019-01-16 2
961 New Therapy Studied For Sickle Cell Anemia 38319 new LottieCoombes4488045 2019-01-16 3
960 Locating A Bankruptcy Attorney In New Hampshire 47108 new NoeliaSamuels9875 2019-01-16 4
959 Enjoy College Basketball With Online University Baseball Betting 39316 new JeromeOlivares956 2019-01-16 4
958 Computer Fix And Services Rochester NY 45431 new Jasmin78U680346 2019-01-16 4
957 About Cost-free Tiny Organization Grants 39324 new KaiLachance40279 2019-01-16 4
956 Three Causes You Ought To Not Do Cobra 15969 new AbrahamNewman09062 2019-01-16 3
955 Get Development Out Of Your Plants 29198 new ThorstenHallman736 2019-01-16 3
954 Five Wonderful Places To Go Camping In Virginia 16305 new BridgettHeiman9 2019-01-16 4
953 Finding The Most Readily Useful California Home Loan 40434 new NatalieBeak53830 2019-01-16 4
952 Repair My Credit I Dont Know Where To Start 22663 new ToniaHoover65707 2019-01-16 3
951 Boards - The Business Gold-mine? 17402 new AlfredoAsche6270 2019-01-16 3
950 Birthday Events 38720 new EstelleFairfax624 2019-01-16 4
949 Repair My Credit I Dont Know Wherever To Start 15800 new PriscillaLocklear1 2019-01-16 3
948 Computer Restoration And Companies Rochester Nyc 40199 new IolaStansbury55549672 2019-01-16 3
947 Planning Birthday Celebration Themes: Does-it Need To Be A Chore? 16808 new UteFuerst3749385775 2019-01-16 4
946 Septic Systems 101 For Home Buyers 45258 new Booker16H43414972196 2019-01-16 4
945 How Exactly To Choose The Perfect Wedding Dress 29591 new AlonzoMcGoldrick3 2019-01-16 4
944 Five Excellent Locations To Go Camping In Virginia 19904 new AshleyHxo561003 2019-01-16 3
943 Computer Restoration And Services Rochester NY 13516 new RZVRobby83597309 2019-01-16 5
942 Home Internal Painting 101 18947 new FredericMcGruder098 2019-01-16 4
941 Items To Consider When Hiring A York City Limousine 34545 new Pam098345087098 2019-01-16 3
940 Repair My Credit I Dont Know Where To Start 24171 new RosePaton68493342 2019-01-16 2
939 RSS-FEED Distribution Established As A Superb Search Engine Optimization Relating Strategy 46999 new ChristenVanderpool53 2019-01-16 1
938 Bugs And Pest Control 28743 new EdwinHerlitz9305 2019-01-16 5
937 How Sick People Get Better Rest 14639 new PaulinaBembry871541 2019-01-16 3
936 An Convenient Guide To Constructing Links To Your Web Page 44712 new ShanelAkc3377228865 2019-01-16 4
935 Adult Day Care Center 19713 new MattieMulligan896041 2019-01-16 3
934 New Therapy Studied For Sickle Cell Anemia 33577 new GuyCanipe8940213334 2019-01-16 3
933 The Perfect Wedding Dress For The Bride 32099 new Robin835683502872827 2019-01-16 4
932 Buy Youtube Views 45851 new FNECarmon649839 2019-01-16 2
931 About Free Of Charge Tiny Enterprise Grants 18138 new LoriSancho901118312 2019-01-16 4
930 Governor Schwarzenegger Becomes Florida To Solar Ceiling Systems 21297 new MaricelaButz792704 2019-01-16 4
929 Repair My Credit I Dont Know Wherever To Start 35015 new LolaBrothers80292 2019-01-16 2
928 Wedding Vows: Seven Tips For Personalizing Your Own 34026 new JohnieLarge058981 2019-01-16 4
927 Septic Systems 101 For Residence Buyers 28061 new Lilia0264432750715 2019-01-16 3
926 Ending The Drug And Alcohol Temptations 28127 new VickySchweizer20216 2019-01-16 5
925 Insects And Insect Control 37755 new NoelWeld3038497982526 2019-01-16 6
924 Pests And Bug Control 13940 new JamisonQuisenberry 2019-01-16 4
923 Secure Pest Control Tips 49587 new GIHHouston33688323 2019-01-16 3
922 Insects And Pest Control 16666 new VVKIrving531968509867 2019-01-16 3
921 Computer Restoration And Services Rochester Nyc 22608 new NikoleHatcher32 2019-01-16 5
920 Can I Order Crocs Shoes On-line? 15218 new CarltonMcSharry 2019-01-16 3
919 Impress With Great Birthday Party Invitations 17958 new AmosMcCutcheon047 2019-01-16 3
918 Finding The Most Useful California Home Loan 17920 new LucileVyr1217875393 2019-01-16 2
917 Find The Right Real Estate Agent For Your Miami Real Estate Experience 26354 new MerriCrane52164975 2019-01-16 5
916 Cheap Digital Cameras 27190 new Julissa83W7808749875 2019-01-16 4
915 How Sick People Progress Sleep 22083 new HamishGoad774239 2019-01-16 2
914 Comparison Shopping When Re-Financing 43282 new MollyHarms0627378 2019-01-16 4
913 3 Items To Look For In A California Mortgage Company On Line 49061 new KelleeKilleen480 2019-01-16 4
912 Plumbing Issues Might Need A Plumbing Contractor 14583 new JesusHay8553114 2019-01-16 4
911 How Relevant Is Your Ecommerce Internet Web Site Design? 20867 new Arnoldo7722705441108 2019-01-16 4
910 Secure Pest Control Tips 46912 new LatoyaQ41734393 2019-01-16 3
909 New Therapy Studied For Sickle Cell Anemia 12871 new JanieWild301042 2019-01-16 5
908 The Perfect Landscaping Tree 34744 new EvaWestgarth2933 2019-01-16 3
907 Marketing Your House To Homebuyers 14398 new MickeyRobins11848 2019-01-16 2
906 Understanding And Using Myspace Privacy Settings 40143 new Francesco87V8628590 2019-01-16 3
905 Secure Pest Control Tips 31918 new TedRoemer2509828334 2019-01-16 3
904 Should You Use Credit Counseling Services? 49142 new CDWVernita91628 2019-01-16 3
903 Personal Injury Solicitors 32777 new CharlesSimpkinson 2019-01-16 5
902 Governor Schwarzenegger Becomes Florida To Solar Top Systems 28940 new CliffDelee18669112 2019-01-16 5
901 Repair My Credit I Dont Know Where To Start 28508 new ColletteNivison8 2019-01-16 4
900 Getting High... Is It Possible To Log Off It? 36748 new StepanieBerkman08 2019-01-16 6
899 Insects And Bug Control 23026 new AnnabelleBlackett56 2019-01-16 7
898 Find The Correct Real Estate Agent For Your Miami Real Estate Experience 26160 new LoriIsh692997780 2019-01-16 6
897 Buy You-tube Views 43728 new Mose16R40153039973190 2019-01-16 3
896 Stopping The Alcohol And Drug Temptations 36846 new RollandPci676916737 2019-01-16 5
895 Private Pools And Security 35501 new QuintonTolmie0446935 2019-01-16 3
894 How Sick People Improve Sleep 32836 new ManuelaSpeer089779160 2019-01-16 3
893 New Therapy Studied For Sickle Cell Anemia 30708 new JudiKallas7454777344 2019-01-16 3
892 Injury Solicitors 18020 new WayneBaber940855 2019-01-16 3
891 Injury Solicitors 16821 new FloridaAndersen42 2019-01-16 6
890 The Health Benefits Of Chlorella And Gigartina Red Marine Algae 38291 new MarisaEoe9216100375 2019-01-16 4
889 Repair My Credit I Dont Know Where To Start 49393 new FloridaCurr3589 2019-01-16 8
888 New Therapy Studied For Sickle Cell Anemia 18685 new LorrieBlackwood73503 2019-01-16 4
887 A Lot Art And More In Vero Beach 28590 new WinonaZ1229920174 2019-01-16 1
886 Find The Correct Real Estate Agent For Your Miami Real Estate Experience 15255 new IndianaGiles032336 2019-01-16 3
885 Player Profile: Joe Moneymaker 28826 new NataliaWitt3721804 2019-01-16 4
884 Safe Pest Control Tips 33530 new JulianaXhn89743 2019-01-16 4
883 Your Manual To Temecula Wine Trips 48288 new DannielleLuce9404975 2019-01-16 3
882 Dirk Goes Wild And Suns Fail To Cover! 23474 new ValenciaNorthey 2019-01-16 7
881 Significantly Art And A Lot More In Vero Beach 18723 new LatanyaNoskowski663 2019-01-16 3
880 Repair My Credit I Dont Know Where To Start 22606 new RayfordIsabelle82973 2019-01-16 4
879 Creative Birthday Celebration Ideas 32298 new AlishaForce7262 2019-01-16 3
878 Seniors Could Possibly Get Inexpensive Supple-mental Health Attention Insurance 45568 new CornellTramel4781828 2019-01-16 3
877 Bugs And Pest Control 35369 new InesLsf9968468845 2019-01-16 3
876 Bugs And Pest Control 16400 new MarcosMenkens588478 2019-01-16 4
875 Find New Automobile Dealer 36211 new JaxonRry9381351 2019-01-16 3
874 Online Computer Technology Degrees 25303 new ReynaldoMcGrowdie491 2019-01-16 4
873 Airsoft Guns: A Launch 14900 new CandaceHibner133606 2019-01-16 3
872 Repair My Credit I Dont Know Where To Start 43998 new Reginald1422656861048 2019-01-16 3
871 Set The Fun In-the Plink, Get BB Weapons? 26360 new AracelyStrong5627 2019-01-16 3
870 Your Manual To Temecula Wine Tours 19155 new AidaFernandes1395 2019-01-16 5
869 Computer Fix And Services Rochester Nyc 24196 new MyrtisLeblanc72 2019-01-16 5
868 National Organization Recognizes Achievement Of Orange County Schools 17605 new SebastianDesir31621 2019-01-16 4
867 Louisiana Real Estate A French Influence 24159 new GaleBelton98517234 2019-01-16 2
866 Three Motives You Ought To Not Do Cobra 42241 new JackiWalck05190 2019-01-16 3
865 A Mother's Known Reasons For Choosing Montessori 12546 new Mayra08V6227490 2019-01-16 4
864 What To Consider When Hiring A York City Limousine 28077 KatherinArreguin2193 2019-01-16 3
863 Nevada Jobs 39537 MaritaQud86788788 2019-01-16 5
862 The Perfect Wedding Dress For The Bride 16269 NaomiMate92745692287 2019-01-16 4
861 Wildfire Productions Announces Release Of Most Recent Client Website: Just Art Related 16934 ErnestineFornachon18 2019-01-16 3
860 Bugs And Bug Control 42373 ShantellSilver059 2019-01-16 4
859 Governor Schwarzenegger Turns Florida To Solar Roof Methods 32062 KSPGeraldine7596 2019-01-16 4
858 The Good Results Brought By A Medical / Nurse Staffing Agency Business 32767 JustinaCarver99 2019-01-16 2
857 Retiring Vice Chairman Dominates Ford News 43792 CelesteStarke9365 2019-01-16 6
856 3 What To Look For In A Florida Mortgage Lender Online 17226 LyndaSliva55020564 2019-01-16 3
855 Swimming Pools And Security 37060 ArethaBrownless99052 2019-01-16 1
854 Personal Injury Solicitors 12556 JeannetteBodnar 2019-01-16 5
853 Deion Sanders 1989 Draft Time Picks 27415 PhillipDonald789 2019-01-16 4
852 If The Stocks Commence At Just Beneath A Dollar, How Can An Investor Hope To Grow To Be Wealthy In The Finish? 39137 GeorgettaProbst 2019-01-16 4
851 Types Of Coffee Packages 31069 AlanD981107322950929 2019-01-16 4
850 Find The Correct Real Estate Agent For Your Miami Real Estate Experience 38855 MarilynMcmanus397057 2019-01-16 2
849 The Mean KSC Airsoft Guns 39378 ZJSLashawnda78438 2019-01-16 4
848 About Free Small Organization Grants 30388 SashaSkeyhill081 2019-01-16 3
847 Septic Systems 101 For Residence Buyers 20780 Edna89394586975 2019-01-16 5
846 Repair My Credit I Dont Know Wherever To Start 47385 CNTAgustin427772021 2019-01-16 2
845 New Therapy Studied For Sickle Cell Anemia 41872 LavadaSchell157409 2019-01-16 2
844 Getting Poker Guidance In A Poker Community 46955 BiancaMasterson354 2019-01-16 3
843 Little Roses Will Change The Look Of Your House 47155 ClarissaPenney832359 2019-01-16 3
842 Acquiring An Accredited On The Web Bachelor Degree 40118 CelinaConway085039 2019-01-16 2
841 Can Laziness Make You Rich? SusanneGruner366724 2019-01-16 3
840 How To Explode Visitors To Your Site For Free Of Charge 27907 DanieleB2115449218825 2019-01-16 2
839 News And The Internet 32322 IgnacioHudak95354 2019-01-15 2
838 News And The Internet 33689 AnthonyBarrow35515063 2019-01-15 4
837 The Perfect Landscaping Tree 38657 KamiG7517392890685003 2019-01-15 2
836 Laser Hair Removal - Color Of Hair And Skin 30278 AmelieAndre11539 2019-01-15 4
835 Personal Injury Attorneys 18290 AlizaBobadilla5123 2019-01-15 2
834 New Therapy Studied For Sickle Cell Anemia 43725 ThereseTen7070260320 2019-01-15 2
833 Southern Charm In Nashville Genuine Estate 17447 Chase08X4170415540 2019-01-15 3
832 Septic Systems 101 For Home Buyers 31389 Ruth68G00810593578586 2019-01-15 2
831 Drug Rehabilitation - No Effortless Alternatives 29224 KaceyDayton445141 2019-01-15 2
830 Small Flowers Will Change The Design Of Your House 27885 Eartha318170639 2019-01-15 3
829 Repair My Credit I Dont Know Where To Start 41447 TawannaG1298213 2019-01-15 1
828 Find The Appropriate Real Estate Agent For Your Miami Real Estate Experience 25264 PhilipChapple51074 2019-01-15 2
827 Pests And Pest Control 48343 KirkGoodin1963173389 2019-01-15 3
826 Bug Control: Options For Your Need 10945 MuoiJasprizza48 2019-01-15 2
825 A Mother's Good Reasons For Choosing Montessori 21556 RichieNis166186 2019-01-15 2
824 Best Baby Games 19304 Rachael98D75389708185 2019-01-15 4
823 Southern Charm In Nashville Real Estate 24087 MarilynnPrerauer4 2019-01-15 3
822 Laser Hair Removal - Color Of Hair And Skin 16041 ElveraJaffe20054102 2019-01-15 3
821 Secure Pest Control Tips 37832 SQWAmber4817994238030 2019-01-15 3
820 The Mean KSC Airsoft Guns 31790 Adell15Z0337657600043 2019-01-15 3
819 Safe Pest Control Tips 22817 MaxineEbersbacher3 2019-01-15 3
818 Working Music 43484 PearlBlaxcell4068 2019-01-15 3
817 Richard E. Grant: The Actor Con-Artists Hate 15699 LeonaBorrego4700 2019-01-15 4
816 Plumbing Dilemmas May Possibly Require A Plumbing Company 48435 Carma21A382143263769 2019-01-15 6
815 Deion Sanders 1989 Draft Morning Picks 12943 NicholCissell2525708 2019-01-15 3
814 New Therapy Studied For Sickle Cell Anemia 24081 IrishWicken82793124 2019-01-15 3
813 Naturally Stop Acid Reflux AutumnMueller045 2019-01-15 2
812 Alcohol Rehab 11733 ShannonAckermann5269 2019-01-15 3
811 How To Save Money On The Las Vegas Wedding 46122 StephanyFerry763216 2019-01-15 5
810 The Good- The Bad And Female Viagra Olivia73N137390302 2019-01-15 2
809 Amethyst Stone Price, Benefits DeloresBracewell 2019-01-15 1
808 Many Types Of Facts You Need To Understand About Sbobet Asia Choices RosellaMccartney 2019-01-15 6
807 تور مشهد PercyT008187616 2019-01-15 4
806 Your Number One Choice To Watch Movies Online CorneliusDimattia702 2019-01-15 3
805 Sterling Jewelers Are Very Much Concerned About The Present Market Demand! QuinnMeece6298801515 2019-01-15 4
804 Personal Injury Attorney - Sure-fire Method To Success 38893 JulietaWahl32801458 2019-01-14 4
803 Understanding And Using Myspace Privacy Settings 42961 Jonathon8145574062570 2019-01-14 4
802 SEO - Four Steps To Quick Success 11826 DominiqueBook75 2019-01-14 4
801 Nike Air Force Ones 27635 LarryMacBain42235 2019-01-14 4
800 What To Expect From An Adobe Photo Shop Tutorial 20406 ErinCarper64061844 2019-01-14 4
799 Knowledge And Using Myspace Privacy Settings 34773 Mabel2167825246374674 2019-01-14 6
798 Knowledge And Using Myspace Privacy Settings 13313 GretaEllis930402 2019-01-14 3
797 Tuning Into Orange County Schools 16782 JackLamond2326707 2019-01-14 4
796 Custom Air Force Ones 23441 HXARenaldo7848790809 2019-01-14 3
795 Forums And The Coin Of Advertising And Marketing 38872 KelleyPetrie88585075 2019-01-14 3
794 May England Get The Fifa World Cup? 38042 UCZLeon14767970982736 2019-01-14 4
793 Depression: Make Your Days More Happy 43834 UtaCarty465069481868 2019-01-14 7
792 Finding And Adding An Awesome Profile Lay-out 38632 JillianVonwiller4892 2019-01-14 3
791 Activity Book Coupon 2006 46021 RebeccaClayton16594 2019-01-14 5
790 Obtain A Healthy Mouth With These Useful Tips 29001 RoslynDeNeeve30855 2019-01-14 6
789 Using MySpace Codes To Improve Your MySpace Page 48277 GeorgiannaHebblethwai 2019-01-14 7
788 Finally A Law Firm That Provides It Best In Terms Of Overseas Corporations. 31812 SolomonFryman493716 2019-01-14 6
787 SEO - Four Steps To Quick Success 48820 LawerencePlate0 2019-01-14 4
786 Clothing And Equipment In Fitness, Sports And Re-creation 37270 EwanGross75590729 2019-01-14 5
785 Does Your Dress Signal Handle Flip Flop? 13096 MinnieVesely37064 2019-01-14 3
784 The Perfect Wedding Dress For The Bride 49229 WeldonIsaacson510 2019-01-14 4
783 Search Engine Submission Companies In India 48150 EvangelineLqy428 2019-01-14 4
782 Using MySpace Codes To Improve Your MySpace Page 46126 ChristoperOKeefe 2019-01-14 6
781 Most Readily Useful Lawyer Services 24507 DerrickArtis494774 2019-01-14 7
780 Top 3 - Basketball People Incomes 32086 LachlanOtis923079 2019-01-14 2
779 Error Authenticating. Either Bad Username/Password Or Your Account Has Outstanding Payments Due 47317 ManuelBelgrave194157 2019-01-14 5
778 Detoxify Your Body By Way Of A Detox Foot Patch 21878 CiaraBoler76540736 2019-01-14 3
777 Las Vegas Weddings - Discover More About Las Vegas Weddings 22543 ElmoLittleton477 2019-01-14 5
776 Depression: Make Your Days Happier 36734 MarisolLundie58138 2019-01-14 1
775 How Exactly To Select The Perfect Wedding Dress 31847 LonBnv50651195766620 2019-01-14 2
774 How Relevant Is Your Ecommerce Internet Website Design? 18833 VeroniqueRosario32 2019-01-14 3
773 Coupon Codes: Conserving Without The Clipping 15494 MichelleBuckland4 2019-01-14 3
772 Download Free Puzzles Game 31323 TrinaDanglow4587 2019-01-14 5
771 Shop Perfectly And Spend Less 26584 Fredericka46A58 2019-01-14 4
770 Embroidery Digitizing Forums Are Of Great Help 16801 GabrielCurmi4026 2019-01-14 2
769 Handle In Time Management 28076 BeaTedesco239173 2019-01-14 4
768 Using MySpace Codes To Boost Your MySpace Page 40636 RigobertoHeckman2390 2019-01-14 5
767 Show Your Correct Colours With Beads 26214 RichelleVachon08540 2019-01-14 2
766 How To Find The Ideal Online Video Clip Tutorial? 37219 CharleyBertram8968 2019-01-14 3
765 Greatest Ideas For Writing A Fantastic How-To Report 16157 DorisZiesemer09572 2019-01-14 3
764 Guide In Purchasing A Home In Las Vegas 40879 ChandraBowers75 2019-01-14 3
763 Miami Beach, Florida Film And Entertainment - A Complete Review. 23500 CRYNigel77428840378 2019-01-14 3
762 Cristiano Ronaldo Biography 35564 GloriaCkz191926179923 2019-01-14 4
761 Remodeling A Bathroom And Re-finishing And Restoring Baseboard Heating Factor Covers 40684 PhilipSchulze269 2019-01-14 1
760 Using Myspace Security - Placing Your Page To Personal 28737 BlondellSeiler24 2019-01-14 4
759 Clone Golf Clubs- Are They Worth It?- Part 1 28908 DeannaBickford2 2019-01-14 3
758 Wholesale Nike Air Force A Single Footwear 22318 SheritaHelena813 2019-01-14 3
757 How Exactly To Create Your Own Vanity Plates 29409 TTNJohnny738470801204 2019-01-14 5
756 Index Distribution Has Replaced The Search Engine Submission 43723 Aiden40E6644190533115 2019-01-14 5
755 Plan Your Immigration At Each And Every Stage 10019 WilfordGurney53119 2019-01-14 7
754 Appreciate School Baseball With Online University Basketball Betting 40658 Bebe203689363791551 2019-01-14 4
753 All You Require To Know About Hair Follicle Drug Testing 12128 HazelHalfey2969 2019-01-14 7
752 How You Can Discover The Ideal Online Video Tutorial? 12631 MalorieTullipan1 2019-01-14 6
751 Creating The Content 22861 April1790343679074994 2019-01-14 6
750 Residence Improvement Tips For The Day-to-day Property Owner 27569 ReneeCalder252574 2019-01-14 8
749 What You Should Check For When Buying A Home In Las Vegas 35171 PeterCurtiss5813 2019-01-14 7
748 Attrack An Avalanche Of Compliments About Your Healthier, Match And Amazing Body 28071 PalmaGuzman453864 2019-01-14 4
747 Los Angeles Schools Work Nations Second Greatest Area 19810 AlisiaDreher5481978 2019-01-14 4
746 Creating The Content 22192 MohammedToohey76 2019-01-14 5
745 Forum Paid Posting 30048 JeromeMontes23470647 2019-01-14 6
744 Phoenix Insurance - How To Get The Top Phoenix Insurance Prices 42378 RoslynWilmoth79 2019-01-14 4
743 Remodeling Your Bathrooms And Refinishing And Restoring Baseboard Warming Aspect Includes 17920 DongYuille899237004 2019-01-14 6
742 How Exactly To Create Your Own Personal Vanity Plates 17365 PauletteWilkie8790 2019-01-14 3
741 Cock Rings Sex Toy For Guys 21227 LaraeFreud311111441 2019-01-14 3
740 Attempt These Tips If You Have Plumbing Issues 24638 DennisMowll926212661 2019-01-14 3
739 What Exactly Is An Affiliate System 19444 OlenQuinlivan9028 2019-01-14 7
738 Locating A High Top Quality Author 40803 AdrienneCain48333863 2019-01-14 4
737 Sports Tops For Everyday Style 46487 LottieRowlandson 2019-01-14 4
736 What To Do For Enlarged Prostate Or For Prostate Cancer 39238 Brodie88136836087464 2019-01-14 4
735 Believe You Cannot Create Articles? Feel Once Again! 49143 SherlynGlossop567769 2019-01-14 3
734 Error Authenticating. Either Bad Username/Password Or Your Account Has Outstanding Payments Due 32533 ElviaRowe61700052860 2019-01-14 5
733 Error Authenticating. Either Bad Username/Password Or Your Account Has Outstanding Payments Due 20464 IsisAiston1124287651 2019-01-14 4
732 Hold Your Ultimate Wedding Reception Inside The Stunning Las Vegas Wedding Venues 24567 Lilliana483161897 2019-01-14 5
731 May Britain Get The Fifa World Cup? 18799 TheronFregoso32427 2019-01-14 6
730 The Connection Between Reciprocal Links And SEO 23125 DorcasVandiver2660 2019-01-14 5
729 Keeping On Money When Shopping For Groceries 31819 MollieHowland21555 2019-01-14 4
728 Kid Custody And Seeing Your Children - Visitation 20803 VickieM2420701592 2019-01-14 5
727 The Exclusive Appeal Of Miami Beach Real Estate 10458 BrockBrinkman17893 2019-01-14 5
726 Common Affiliate Marketing Errors 45060 ToniMcWilliams180 2019-01-14 5
725 New Way In The Press Releases Creating 18772 MargaritoYdp172 2019-01-14 2
724 Error Authenticating. Either Bad Username/Password Or Your Account Has Outstanding Payments Due 17077 BookerMajors8505 2019-01-14 4
723 Using Myspace Protection - Setting Your Page To Private 41166 LucianaRatliff5368 2019-01-14 5
722 Exhilaration And Inspiration For Your Home Improvement Projects 17535 CameronSelleck6701 2019-01-14 2
721 How To Find Out The Most Ideal Place To Buy A Property In Las Vegas 10287 FelixTaormina79 2019-01-14 4
720 Affordable Health Insurance In Michigan 11111 PhillisP875474759 2019-01-14 4
719 New Way In The Press Announcements Writing 28184 ReginaldCulpin1079 2019-01-14 5
718 Distinct Types Of Adobe Photo Shop Tutorials 37450 Angelica02P6406 2019-01-14 5
717 New Way In-the Press Announcements Creating 40795 JerrodMill19125449 2019-01-14 3
716 Never Underestimate The Power Of The Forum 20318 KristanLansell65 2019-01-14 5
715 Child Custody Agreement And Taxes 35824 CerysFitzpatrick0 2019-01-14 5
714 Using MySpace Codes To Improve Your MySpace Page 46728 CraigPenn101951830040 2019-01-14 7
713 Medicine Rehabilitation An Introduction 24745 ZellaWilding53350396 2019-01-14 4
712 Football Q&A: Baseball Details May Very Well Not Have Known 14479 DamianHoffnung74 2019-01-14 6
711 The Search For That Trusted Mechanic 25415 TimothyRobe9271545 2019-01-14 3
710 Dental Care Recommendations That You Can Not Live WIthout 27852 CathyHammons02862 2019-01-14 6
709 What Is Inside Your Hiking Water? 49855 Hulda9655321567758 2019-01-14 4
708 The Connection Between Reciprocal Links And SEO 23935 ArnoldRoark38794725 2019-01-14 4
707 What's Inside Your Hiking Water? 29597 JonathanProwse77 2019-01-14 5
706 What Things To Consider When Selecting A Kailua Hotel 40829 JaiRios92732614 2019-01-14 4
705 Take This Suggestions On Travel To Use It Today 38582 MicahBaccarini4936 2019-01-14 3
704 Helping Americans With Spinal Cord Disabilities 33768 Leonida99W8774020060 2019-01-14 7
703 Remodel Your Bath-room For Large Returns 13139 AdeleMaier12891 2019-01-14 4
702 Fulfilling Your Dreams Of Luxury With The Help Of Bmw Los Angeles 20051 KristianFennell3100 2019-01-14 5
701 The Ten Laws Of Choosing The Right Wedding Dealer 45370 CharisMeza01692 2019-01-14 4
700 What Is The PayPal Forum For? 20053 JustineRicketson815 2019-01-14 4
699 The Connection Between Reciprocal Links And SEO 33728 HarleyKinard4012069 2019-01-14 3
698 Factors In Buying A Home In Las Vegas 23745 StephaineMosher366 2019-01-14 8
697 Golf Swing Technicians May Be Improved Very Quickly 15981 Wilda78P990399995 2019-01-14 5
696 Creating The Content 14714 AudreyMondragon243 2019-01-14 4
695 Put Good Garden Furniture 20212 DickLutz6179171340587 2019-01-14 4
694 Typical Affiliate Advertising And Marketing Errors 18053 BettieQ68139399482569 2019-01-14 7
693 Ibanez Guitars At The 2006 NAMM Show 38363 PoppyMann933292472 2019-01-14 6
692 Top 3 - Basketball People Wages 46965 ErlindaLoewenthal55 2019-01-14 5
691 What Your Minivan Must Have 25236 MeredithQ98088286 2019-01-14 6
690 Entertainment Book Coupon 2006 13318 ErmaChipman64441 2019-01-14 5
689 Observing Child Custody Legal Forms 22781 Kristina575181201 2019-01-14 2
688 Finding And Adding A Very Good Profile Lay-out 32037 KentonHodgson65505896 2019-01-14 6
687 New Way In-the Press Announcements Creating 27900 ElkeDitter0322441 2019-01-14 5
686 Store Effectively And Save Money 20964 ClairToll18058687537 2019-01-14 6
685 Comparing Different E-Commerce Shopping Carts 12886 ClaudetteSteiner9139 2019-01-14 6
684 تور تایلند HermanKhp666883138 2019-01-14 6
683 The Truths And Myths Of Masturbation 35025 FlorrieMcKean303696 2019-01-13 6
682 Details About Charcoal Water Filters 19285 ElbertLeibowitz27271 2019-01-13 7
681 What Your Minivan Ought To Have 14577 RenatoMcKean34428 2019-01-13 8
680 Guidelines To Get The Best Home In Las Vegas 12082 CalebCastellanos2807 2019-01-13 4
679 Bath-room Vanities And Bedroom Mirror Models - Sophisticated And Practical Furniture To Convert Your Property 34275 RhondaDobie0586 2019-01-13 7
678 New Way In The Press Announcements Writing 23410 ClarissaNowlin9472 2019-01-13 8
677 Shower Heads With Filters 47692 ValMorford9911849938 2019-01-13 8
676 New Way In The Press Announcements Writing 30630 SandraShrader289989 2019-01-13 8
675 The Most Effective Financial Obligation Administration Programs - How To Decide On 16445 ShanonSands2114183 2019-01-13 6
674 How To Get Started In Import Export MarcellaMansell295 2019-01-13 23
673 Bathroom Vanity Will Exite The Innovative Renovator 12380 KeenanMcCabe608 2019-01-13 13
672 New Way In The Press Announcements Writing 26919 ManuelMehler56664548 2019-01-13 8
671 Plugged Drains Kill - Home Elevators Hydrogen Sulfide 43916 JorgMarmion200732370 2019-01-13 6
670 Free Download Advance Pc Game 14250 JocelynWoollacott4 2019-01-13 7
669 New Way In The Press Releases Writing 21098 ClemmieSeale16194597 2019-01-13 6
668 The Objective Of The Salvage Car Auction 43905 Shanon78F648742950 2019-01-13 11
667 Great Grand-parents Use Mail 45730 Adriene1268792128 2019-01-13 8
666 Self Support Techniques Are Accessible To Take The Anger Out Of Your Method 35855 Janeen96M3744655578 2019-01-13 5
665 Think You Can't Write Articles? Believe Once Again! 23190 DarioGreenwood943 2019-01-13 8
664 Cave Painting Book Get Specific In Your Art 45437 MarylouTrimble3 2019-01-13 6
663 Reactive Hypoglycemia And Weight Training: To Be Aware Of Be Cuisine! FinlayLauer7140 2019-01-13 155
662 Addiction Treatment Centers For Substance Abuse 47236 LizaSwenson2349765 2019-01-13 11
661 Car Insurance Rates 33188 WinonaCopley25084 2019-01-13 7
660 Only Say Peer Pressure And No: Healthy Eating 22330 ElissaKosovich603558 2019-01-13 6
659 Golf Swing Aspects Could Be Improved Rapidly 36977 MattManess3920522 2019-01-13 10
658 Very Best Suggestions For Writing A Excellent How-To Write-up 35440 LarueRagland208924 2019-01-13 7
657 Impact Of Press Release In SEO 34827 TaylorEnglish92057 2019-01-13 9
656 Psoriasis- Relief From Psoriasis 15649 LindsayBledsoe5874140 2019-01-13 5
655 How Rage Management Courses Can Help You 12451 CliftonLink8700079929 2019-01-13 6
654 Three Proven Approaches To Handle Your Writing Panic 33247 CaseyJiron6107755 2019-01-13 8
653 Automotive Salvage And Environmental Safety 13768 JodiFrye78529873 2019-01-13 6
652 Once Your Cars Parts Are Hard To Find 29287 MckenzieHopkins924 2019-01-13 6
651 Vanity Table And Bench Set The Beautiful Way To Keep Organized 22980 Tammie0317672474 2019-01-13 9
650 Period Cancellation 37791 MonaKarr297398849890 2019-01-13 3
649 Interesting And Beautiful Landscape Painting Books 39636 JanieDrew215548369 2019-01-13 5
648 Discount Coupon Codes: Saving Without The Clipping 31319 Alena4654144975224142 2019-01-13 12
647 Finding And Adding A Cool Profile Layout 44274 AddieBracewell429 2019-01-13 7
646 Bathroom Vanity Will Certainly Exite The Creative Renovator 34964 NicoleNagle86193 2019-01-13 6
645 Custom Made Wedding Rings Brief Info About It TristaIzz807021 2019-01-13 4
644 Mini Roses Are Likely To Change The Look Of Your Home 26864 AnnettaChildress32 2019-01-13 9
643 Error Authenticating. Either Bad Username/Password Or Your Account Has Outstanding Payments Due 18487 LillieKilpatrick 2019-01-13 6
642 Forums - The Company Gold Mine? 17187 VernitaCapuano127 2019-01-13 7
641 Between Scholarship Programs And Student Loans 42433 FlorEverett61559046 2019-01-13 6
640 Getting Used Bath-room Vanities 32633 OctaviaJenyns5852779 2019-01-13 6
639 Error Authenticating. Either Bad Username/Password Or Your Account Has Outstanding Payments Due 42881 CarinSpada1564634 2019-01-13 11
638 Index Distribution Has Changed The Search Engine Submission 14353 Buddy916649732257054 2019-01-13 8
637 Uncover On-line Auto Loan For Your Automobile 43928 FrankHaydon585355309 2019-01-13 10
636 Search Engine Submission Companies In India 42245 KimNpj053874846981116 2019-01-13 7
635 An Quick Guide To Constructing Hyperlinks To Your Internet Site 38744 JensR352975597324 2019-01-13 9
634 Bachelorette Party Ideas - Make A Women Last Times As Just One Woman Unique 11844 Colin203013666316106 2019-01-13 10
633 Creating Money On The Web Is A Actual Possibility 49328 MargaritaBoyette 2019-01-13 10
632 New Way In-the Press Announcements Creating 47231 Nancee70Q19912233558 2019-01-13 9
631 Voucher Codes: Saving Without The Clipping 47852 DannieDsj3406809141 2019-01-13 10
630 New Way In-the Press Releases Writing 31957 SimonDesir7213467 2019-01-13 10
629 The Umbrella Of Nuclear Mushroom 45118 KoryDunkley308825 2019-01-13 8
628 Most Effective Thai Delivery Food Restaurant Las Vegas - Finding Hot Thai Food Delivered Super Fast In Vegas 46757 MonicaCassidy25314 2019-01-13 11
627 Small Flowers Will Change The Design Of Your Home 49870 StaceyDeeter34048 2019-01-13 7
626 New Way In-the Press Announcements Creating 30681 RileyAlanson366 2019-01-13 8
625 The Achievement Brought By A Medical / Nurse Staffing Agency Organization 39380 BellArmijo90120930518 2019-01-13 8
624 Understanding And Using Myspace Privacy Settings 25272 ConstanceMaguire53 2019-01-13 8
623 Memorialize The Actual Marriage Ceremony Inside The Stunning Las Vegas Wedding Venues 15772 Virginia31V538219245 2019-01-13 7
622 Feel The Luxor Hotel In Vegas 18567 QXJKala218201378206 2019-01-13 6
621 Guide In Buying A Home In Las Vegas 42646 Esteban54677299778 2019-01-13 8
620 Discover Good Assistance With Selling Our Home In Las Vegas NV 32224 DaniParadis97143 2019-01-13 6
619 Low Priced Las Vegas Hotel Hotels 34430 JannetteChristianson 2019-01-13 53
618 2006 Entertainment Coupon Book 31666 ChauSigel557332526 2019-01-13 5
617 SEO - Four Steps To Quick Success 18533 BrandenLlq4786187462 2019-01-13 6
616 Index Distribution Has Changed The Search Engine Submission 27436 PamPetherick33262 2019-01-13 5
615 Creating The Content 22192 AlineBannan3864265 2019-01-13 9
614 Bath-room Vanity Will Certainly Exite The Creative Renovator 14622 LeonelGarside126 2019-01-13 7
613 Airsoft Guns: A Launch 36679 LeonelLawler72899826 2019-01-13 6
612 Enjoy Your Ultimate Marriage And Reception Located At Incredible Las Vegas Wedding Venues 31556 MasonFowles9808 2019-01-13 7
611 Discount Coupon Codes: Conserving Without The Clipping 24337 ShellaDeuchar49 2019-01-13 6
610 Used Car For Sale 44864 Camilla67A87766365248 2019-01-13 7
609 Looking At Las Nevada Holiday Houses 17825 KirstenMartindale84 2019-01-13 8
608 Down Load Free Puzzles Game 10106 GBUAline05673002 2019-01-13 8
607 Ecommerce: Mashups And Future Site Function 38230 StaceyQ2924228155 2019-01-13 6
606 SEO - Four Steps To Quick Success 32479 WilliemaeHoyle256 2019-01-13 5
605 To Use O-r Not To Use Google Adwords 46245 Esther078649415640 2019-01-13 7
604 Getting Poker Advice In A Poker Forum 36887 RobertaParedes15 2019-01-13 9
603 Items To Expect From An Adobe Photo Shop Tutorial 37228 RochellCary9929773 2019-01-13 9
602 Search Engine Submission Companies In India 49100 AngusHiller126863 2019-01-13 6
601 Animal Rabbits 48062 HowardHer8465630 2019-01-13 10
600 Hatha Yoga 36672 MRWKelli5522284877 2019-01-13 5
599 Suggestions To Find The Best Home In Las Vegas 30792 BrodieAbernathy79 2019-01-13 5
598 Bathroom Vanities And Room Counter Units - Elegant And Useful Furniture To Transform Your House 48630 CeciliaGud09679 2019-01-13 10
597 Get Progress From Your Own Plants 28496 RegenaLowry2099210757 2019-01-13 8
596 New Way In-the Press Releases Writing 45327 DanteLamble76760462 2019-01-13 5
595 Do Not Fall Pray To The Fake Promises Of Free Weight Loss! 49893 Taj158559129096 2019-01-13 8
594 Paris: Hotel Planning 45023 CarmaKilfoyle099 2019-01-13 5
593 How Exactly To Shampoo Hair?? 12175 ChanaDelprat1588567 2019-01-13 6
592 Sports Jerseys For Casual Style 36414 ErikaLeavitt7196 2019-01-13 8
591 Uncover Wonderful Assistance On Selling Our Home In Las Vegas Nevada 37733 ErmaGreco75297949 2019-01-13 9
590 Service Submission Has Replaced The Search Engine Submission 29893 VickieBroadnax0 2019-01-13 9
589 FBI Sought IPhone Order Before Exhausting Options -U.S. Inspector... MadonnaMajor302 2019-01-13 163
588 How To Locate The Best Location When Buying A Home In Las Vegas 28547 BernadineMattingley 2019-01-13 9
587 Search Engine Submission Companies In India 25046 RemonaE5802191164608 2019-01-13 5
586 Reactive Hypoglycemia And Weight Training: What You Ought To Be Eating! VelmaO468505979175 2019-01-13 3
585 تور کوش آداسی ShawnZepeda084493972 2019-01-13 6
584 Why Vanessa And Angela Simmons Pastry Goods Are Altering Womens Fashion! MacRingrose6327 2019-01-13 8
583 Fabindia Tea Tree Skin Toner Review MaxieMcKeown484043 2019-01-13 9
582 Is It Worth Getting An Affordable Blog Hosting? 15202 RichelleGilbreath30 2019-01-13 8
581 Defend Your Loved Ones And Residence With High-High Quality Stun Guns 19969 ElliottSodersten8239 2019-01-13 7
580 Memorialize Your Very Own Wedding Reception With Eye-catching Las Vegas Wedding Venues 10753 JudsonSilvestri79877 2019-01-13 8
579 Chanel Perfume Classy And Stylish 21051 ClemmieTate110862656 2019-01-13 8
578 A New Plan To Help First-Time Homebuyers 49597 FletaFiedler836208 2019-01-12 8
577 Tiny Cook Islands Win Another World Cup Qualifier CliffIngalls893 2019-01-12 7
576 Benefits Of Having A Estate Agent Website 47390 KandaceGillam9517 2019-01-12 6
575 Present Your Beloved Teacher On The Occasion Of Teachers Day 17358 AllenWestbury551 2019-01-12 8
574 Why You Need To Be An Amazon Associate 29850 MargeneMojica405 2019-01-12 8
573 Advantages Of Having A Estate Agent Website 17513 IanLessard5692056390 2019-01-12 5
572 What You Require To Know About Arthritis 44761 AlisonWray2534940083 2019-01-12 11
571 Understand The Most Recent Photoshop Cs Using Guides 36116 ShellaSpeckman00 2019-01-12 11
570 Cost-free Full Version Pc Game Download 10375 Kareem8520013192 2019-01-12 5
569 Error Authenticating. Either Bad Username/Password Or Your Account Has Outstanding Payments Due 23219 LilaManzo161930154034 2019-01-12 6
568 Buy Panama True Estate With A Self Directed IRA 39999 Zane65047220399787191 2019-01-12 8
567 Free Of Charge Complete Version Pc Game Download 16719 FerneChirnside3607 2019-01-12 9
566 How To Set Up A Residence Recording Studio 48969 LilianaONeill49 2019-01-12 8
565 How Is Directory Submission Valuable In Search Engine Optimization? 39345 LeaHankinson35523 2019-01-12 12
564 How To Write A Great Press Release And Increase Press Release Distribution 39673 EnriquetaSchultheiss 2019-01-12 9
563 Amazing Opal Rings - Discovering The Ideal Opal AshleeSeals54687 2019-01-12 7
562 How Is Directory Submission Useful In Search Engine Optimization? 46404 LindaRhem598802 2019-01-12 11
561 Forbes Newspaper, The Real History 25185 GavinRaposo5620145 2019-01-12 9
560 News And The Internet 40878 BrennaPigdon19646705 2019-01-12 9
559 If The Stocks Start At Just Beneath A Dollar, How Can An Investor Hope To Turn Into Rich In The End? 43598 Iesha5284556863 2019-01-12 8
558 How Cocaine Addiction Affects You 44717 CristineRamer4633 2019-01-12 8
557 Peter The Greats Summer Time Palace St. Petersburg, Russia 41140 CathernGooseberry89 2019-01-12 8
556 The Untapped Benefits Of Gambling 21527 VirgieTighe12219845 2019-01-12 8
555 Chanel Jewelry Shouts Elegance And Style 46911 MelWymark9613948 2019-01-12 10
554 Shield Your Family And Property With High-Quality Stun Guns 16946 Lasonya582277587994 2019-01-12 10
553 The Skinny On Exhaust 15865 AidaLeverett950750 2019-01-12 6
552 Ecommerce With Good Quality Price Range Hosting And Free Computer Software Options 16849 LesHagai104752525765 2019-01-12 7
551 Articles Being An Evergreen Search Engine Optimization Strategy 47481 ClaudiaWgb820172 2019-01-12 11
550 How You Can Have Your Own Personal Business In 24hrs 20211 AlphonseXmh588930033 2019-01-12 15
549 Search Engines And Directories - Understanding The Difference 36770 ArdenSerena37541 2019-01-12 12
548 How Cocaine Addiction Affects You 13952 Maricela38G854043731 2019-01-12 7
547 Error Authenticating. Either Bad Username/Password Or Your Account Has Outstanding Payments Due 12988 ErnestoFletcher81645 2019-01-12 8
546 Finest Thai Restaurant Food Delivery Las Vegas - Acquiring Authentic Asian Food Delivered Very Fast In Las Vegas 46289 ByronStuber39211 2019-01-12 6
545 If The Stocks Start At Just Below A Dollar, How Can An Investor Hope To Grow To Be Rich In The End? 11921 LuisaKfm4544222590 2019-01-12 7
544 An Quick Guide To Building Hyperlinks To Your Web Site 30220 FranciscaWynkoop443 2019-01-12 9
543 Seo Is Really A Never Ending Job 36802 Carmine59537022420 2019-01-12 9
542 Dirk Goes Crazy And Suns Fail To Include! 33951 CIOLarhonda6010360 2019-01-12 8
541 Cocaine Addiction, How Can You Place It? 30805 ValenciaArnett0 2019-01-12 8
540 The Increase, Drop, And Rise Of The Gucci Handbag 25069 CrystalMcSharry1 2019-01-12 6
539 How Relevant Is Your Ecommerce Web Web Site Design? 30337 FinlayFlores8251 2019-01-12 10
538 Post Submission Software - Sure-fire Insider Tips 21388 JGYSal3350857127 2019-01-12 11
537 Providing An Easy Method For Achieving Your DreamsPersonal Loans 39340 JQNDebora84274594 2019-01-12 10
536 The Effects Of Methamphetamine As An Addictive Substance 15113 WinifredRepass3 2019-01-12 10
535 Real Estate Appraisal 46689 StellaHolley18139 2019-01-12 10
534 New Way In The Press Announcements Writing 43782 CruzStansfield693084 2019-01-12 4
533 The Rise, Drop, And Rise Of The Gucci Handbag 24859 HunterMounts52124 2019-01-12 7
532 The Absolute Most Reliable Methods To Improve Search Engine Ranking 22075 RoseanneBracker382 2019-01-12 5
531 Lost Hard Drive: Dont Panic 10199 LorriFranz4810862 2019-01-12 6
530 New Way In The Press Announcements Writing 29723 ReynaGwinn80686 2019-01-12 10
529 Chanel Jewelry Screams Beauty And Complexity 27026 SenaidaQqi1639294233 2019-01-12 7
528 Make Your Prospect More Romantic 24945 MaximilianKeyser483 2019-01-12 8
527 Error Authenticating. Either Bad Username/Password Or Your Account Has Outstanding Payments Due 13809 NoahCribbs07344257 2019-01-12 8
526 A New Pro-gram To Help First-Time Homebuyers 42877 DelphiaHildreth58 2019-01-12 6
525 Dropped Hard Drive: Dont Panic 41443 MarinaReddy04212 2019-01-12 8
524 Driving On Wet Roads 41396 TeresaDooley9323 2019-01-12 11
523 Seo Is Really A Never Ending Job 11514 StefanHarford52944 2019-01-12 9
522 Make Your Prospect More Romantic 39014 Cesar4379275275 2019-01-12 11
521 Error Authenticating. Either Bad Username/Password Or Your Account Has Outstanding Payments Due 19005 WalterKay15229558146 2019-01-12 11
520 Why You Should Be An Amazon Associate 33670 SamualJoiner4992 2019-01-12 7
519 New Way In The Press Announcements Writing 35053 GabrielleSpaulding43 2019-01-12 7
518 Things You Should Know Before Taking Lunesta 10071 MargaritaGertz60 2019-01-12 10
517 Forums - The Company Gold Mine? 24290 TrevorMacalister7583 2019-01-12 12
516 Sports Jerseys For Informal Fashion 17671 Cecilia5285943437442 2019-01-12 12
515 Advantages Of Having A Estate Agent Website 15241 ArmandReis2775573 2019-01-12 11
514 Chanel Jewelry Screams Beauty And Elegance 34495 Fae77925226304629 2019-01-12 8
513 Cisco CCNP / BSCI Tutorial: The BGP Attribute NEXT_HOP 42333 ElizaLepage8698330117 2019-01-12 8
512 New Way In The Press Releases Creating 34890 LorenzoKiley90330 2019-01-12 8
511 Getting Poker Guidance In A Poker Community 25297 JamieStclair6581 2019-01-12 8
510 How To Write A Great Press Release And Increase Press Release Distribution 28610 JermaineLaseron5 2019-01-12 12
509 Forbes Newspaper, The Annals 16406 HeikeOwens38346 2019-01-12 10
508 New Way In-the Press Releases Creating 47174 EdithDodson0552 2019-01-12 9
507 News And The Web 26167 Helen94641958739 2019-01-12 10
506 Error Authenticating. Either Bad Username/Password Or Your Account Has Outstanding Payments Due 39534 NancyT468997030 2019-01-12 8
505 Ecommerce With Quality Spending Budget Hosting And Totally Free Software Program Solutions 17673 Carlton79566923 2019-01-12 8
504 Why You Should Be An Amazon Associate 18665 RobinReeks554662953 2019-01-12 9
503 Make Your Prospect More Romantic 44748 RudolphRowlandson45 2019-01-12 8
502 Picking The Right Shampoo For Your Hair Sort 39498 Damaris83131188 2019-01-12 7
501 Benefits Of Having A Estate Agent Website 34381 FriedaHollis22224 2019-01-12 9
500 Illinois Casinos 43267 HectorTobias66726 2019-01-12 8
499 Seo Is A Never Ending Job 44969 BradleyBroun65593159 2019-01-12 9
498 Chanel Perfume Classy And Elegant 36399 MarlonRue243481510020 2019-01-12 11
497 How Is Directory Submission Valuable In Search Engine Optimization? 14387 Cherie92R194294 2019-01-12 10
496 Dirk Goes Crazy And Suns Neglect To Address! 11661 YongRischbieth5433 2019-01-12 12
495 Chanel Perfume Classy And Sophisticated 42348 KaiSand7232277749341 2019-01-12 5
494 Clinics See N Surge In Tattoo Removals 20731 BernadineClaudio 2019-01-12 9
493 Selecting From The Wide Array Of Adobe Photograph Look Tutorial Selections 19580 LillieClutter3372568 2019-01-12 8
492 Learn The Modern Photoshop Cs Using Tutorials 31657 WinnieKelso015914460 2019-01-12 10
491 Pool Hall Hanging Out 12726 LolaJolly53131997 2019-01-12 7
490 New Way In The Press Announcements Writing 11045 IsisMadera201432 2019-01-12 9
489 Understand The Various Kinds Of Flowers 29008 NeilAgee305830435 2019-01-12 10
488 Cisco CCNP / BSCI Tutorial: The BGP Attribute NEXT_HOP 12206 FletaJ1718026311 2019-01-12 8
487 Sending The Proper Flowers? 39772 AngelesSiede766 2019-01-12 12
486 New Way In The Press Releases Creating 10647 JeremyWebster8484 2019-01-12 10
485 How To Write A Great Press Release And Increase Press Release Distribution 23954 BernadineSerisier76 2019-01-12 10
484 Forbes Newspaper, The Annals 40913 Johnson85M182266 2019-01-12 10
483 Memorialize Your Very Own Marriage Ceremony Using Picturesque Las Vegas Wedding Venues 24238 LucasGardin4333 2019-01-12 11
482 Why You Need To Be An Amazon Associate 30863 IrvingStamper7637243 2019-01-12 8
481 News And The Web 30884 LiamR6010614237290 2019-01-12 11
480 Adult ADHD: Have You Been A Notion Machine? 15571 TatianaPercival6 2019-01-12 12
479 Forbes Newspaper, The History 31250 ElliottMorrell48 2019-01-12 11
478 Get Your Internet Site Listed With Search Engine Submission Services 14969 BrainRahman27341866 2019-01-12 9
477 What Are Detox Drinks? 21896 BeauWade917165160 2019-01-12 9
476 Finest Thai Las Vegas Restaurant Food Delivery - Searching Best Chinese Food Delivered Very Quick In The City Of Lights 20462 IsidroKirsch13495 2019-01-12 8
475 Real Estate Appraisal 34428 IndianaMaclean356870 2019-01-12 10
474 New Way In-the Press Releases Creating 25792 DorieG656829788 2019-01-12 7
473 Dirk Goes Wild And Suns Fail To Cover! 22513 AlonzoHuhn422462976 2019-01-12 9
472 Choose The Best Airsoft Weapon 30628 Hazel60P0271056 2019-01-12 7
471 How To Publish A Great Press Release And Increase Press Release Distribution 27350 RosalinaKovar238412 2019-01-12 8
470 Forum Paid Posting 32138 PatSmiley239602704 2019-01-12 8
469 Picking From-the Variety Of Adobe Image Store Article Selections 15741 LucileAndre37310295 2019-01-12 9
468 Get Your Internet Site Listed With Search Engine Submission Services 46017 JulieJacobsen95 2019-01-12 12
467 Understand The Newest Photoshop Cs Using Courses 21275 BrigidaHargrove9419 2019-01-12 10
466 Error Authenticating. Either Bad Username/Password Or Your Account Has Outstanding Payments Due 15231 FionaBattles321556 2019-01-12 9
465 Picking From-the Variety Of Adobe Image Shop Tutorial Alternatives 20412 IvoryKelley7649 2019-01-12 6
464 Between Scholarship Programs And Student Loans 11012 CorneliusMetcalf471 2019-01-12 14
463 How To Grow A Money Tree 30242 LatanyaParenteau 2019-01-12 14
462 News And The Web 28500 ZackMedlin3152468098 2019-01-12 10
461 Between Scholarship Programs And Student Loans 25577 BettyePmb5939514722 2019-01-12 9
460 What Degree Of Car Insurance Do You Need? 16377 DeniceCharbonneau0 2019-01-12 10
459 Tips In Purchasing A Home In Las Vegas 25954 ToddHartin79936013379 2019-01-12 8
458 Surprise The One You Love Teacher On The Occasion Of Teachers Day 46683 CliffordQ688311295142 2019-01-12 11
457 Real Estate Appraisal 13072 ConcepcionThacker147 2019-01-12 8
456 Las Vegas Jobs 38681 PennyDuq5426416387 2019-01-12 12
455 How Is Directory Submission Beneficial In Search Engine Optimization? 38365 SergioWojcik410 2019-01-12 8
454 Picking From The Wide Array Of Adobe Picture Store Article Choices 41716 EverettRiver35499247 2019-01-12 11
453 How Is Directory Submission Beneficial In Search Engine Optimization? 48167 MillaDeMaistre36 2019-01-12 9
452 Surprise The One That You Love Teacher On The Situation Of Teachers Day 35258 BirgitBaumgartner842 2019-01-12 6
451 New Way In The Press Releases Writing 49926 HaroldCostas409756 2019-01-12 6
450 How To Pick Cost-effective Wellness Insurance In Cincinnati, Ohio 18052 MinnieMatney30248 2019-01-12 11
449 Writing The Article 46314 RoxannaGower7213 2019-01-12 10
448 Getting Poker Assistance In A Poker Community 49710 LeticiaGruner6338372 2019-01-12 9
447 Make Your Prospect More Romantic 20310 CheryleEyre79908008 2019-01-12 9
446 Selecting From The Wide Array Of Adobe Picture Shop Tutorial Choices 12404 Terrence35B45336311 2019-01-12 9
445 Embroidery Digitizing Forums Are Of Good Support 22451 JerilynDunbabin2341 2019-01-12 8
444 Forbes Magazine, The Real History 29307 Blair6823762143058 2019-01-12 8
443 New Way In-the Press Releases Writing 32568 ArdisWithnell282 2019-01-12 8
442 Hold Your Incredible Marriage And Reception In Picturesque Las Vegas Wedding Venues 23435 AnnmarieBold9810 2019-01-12 10
441 A New Plan To Assist First-Time Buyers 12501 RustyGsl4059868115226 2019-01-12 10
440 New Way In The Press Releases Creating 15993 KandiPatteson41 2019-01-12 10
439 An Simple And Easy Guide To Creating Hyperlinks To Your Website 20696 LeonaG3194262554 2019-01-12 13
438 A Couple Of Practical Tips For Internet Marketing 36721 AntonQ562601435335219 2019-01-12 12
437 New Way In-the Press Releases Writing 22531 IsabelCostello68 2019-01-12 12
436 What To Do For Enlarged Prostate Or For Prostate Cancer 26306 JohnnieMarquez176493 2019-01-12 9
435 The IKEA Impact 18067 NRGShawna40353120 2019-01-12 10
434 Find Tremendous Suggestions With Selling Homes In Las Vegas NV 40278 SterlingKeeling48406 2019-01-12 9
433 Search Engines And Directories - Understanding The Difference 31475 BettyChilton676 2019-01-12 7
432 Ecommerce With Top Quality Price Range Hosting And Totally Free Computer Software Options 11121 ErnestineCartwright3 2019-01-12 7
431 News And The Internet 28116 WillWedgwood18963659 2019-01-12 7
430 Three Tested Ways To Handle Your Creating Anxiety 22223 JWIAbbey897339115 2019-01-12 7
429 Dildo The Adult Toy Stimulating Parents Sexual Experience. 14195 AshleighFulcher6134 2019-01-12 12
428 New Way In-the Press Announcements Creating 42263 AngeliaTepper627 2019-01-12 8
427 The Accomplishment Brought By A Medical / Nurse Staffing Agency Organization 45918 ElvisHarkness09321288 2019-01-12 8
426 Best Thai Las Vegas Restaurant Food Delivery - Finding And Locating Thai Food Delivery Very Quick In Las Vegas 36512 EdmundoMcnutt50761 2019-01-12 10
425 A New System To Help First-Time Buyers 36708 TamikaHalligan4839 2019-01-12 10
424 Lost Hard Drive: Dont Panic 27126 ChetPelzer37558705 2019-01-12 8
423 Billiard Gloves. To Wear Them Or To Not Wear Them. 37148 ShaunteKaiser0389237 2019-01-12 9
422 Gift Your Beloved Teacher Around The Occasion Of Teachers Day 25686 LuigiMills593105 2019-01-12 8
421 Error Authenticating. Either Bad Username/Password Or Your Account Has Outstanding Payments Due 37222 JillianDale3551342 2019-01-12 10
420 How Relevant Is Your Ecommerce Web Web Site Design? 38408 XIJLuisa4474725657 2019-01-12 13
419 What To Do For Enlarged Prostate Or For Prostate Cancer 38204 HyeH295081076854204 2019-01-12 8
418 How Company And Family Can (and Does) Mix Well 24623 CarmeloDeLaCondamine 2019-01-12 9
417 Three Tested Approaches To Manage Your Creating Panic 17933 FWEEldon2441541 2019-01-12 7
416 Be-a Writing Whiz Industry Your Articles 28003 Alysa609291036841 2019-01-12 14
415 Real Estate Appraisal 24777 SallyMedland060438 2019-01-12 10
414 Understand The Modern Photoshop Cs Using Guides 15350 VioletteNarvaez1877 2019-01-12 10
413 The Mean KSC Airsoft Guns 19917 MildredLEstrange 2019-01-12 7
412 Dirk Goes Crazy And Suns Fail To Address! 19944 LorenzaMcCauley 2019-01-12 12
411 Promotional Marketing Specialty Youve Waited Long Enough 13139 RandyOrourke93773 2019-01-12 11
410 Hawaii Big Island Vacations: Your Booking Options 30661 MarjoriePeterson 2019-01-12 11
409 Football Q&A: Baseball Facts You May Not Have Known 12107 Kristan19A3484776 2019-01-12 7
408 Spotting Cocaine Addiction 17576 CamillaIvory3475 2019-01-12 10
407 Person Profile: Chris Money-maker 32257 ArturoDing84927173 2019-01-12 11
406 Student Lodging In Canterbury - Four Necessities To Help You Discover Your Home MartaMullings9431512 2019-01-12 6
405 Living-room Furniture 19959 DarrellMcQuillen0874 2019-01-12 6
404 San Francisco Union Square Hotels 23916 CeliaTvb93984617 2019-01-12 9
403 Nike Air Force One 25th Anniversay "Enter The Ithology" 46676 ClintonRunyon25081 2019-01-12 12
402 New Way In-the Press Releases Writing 44354 HenryAshton1753285 2019-01-12 6
401 The Achievement Brought By A Medical / Nurse Staffing Agency Organization 39380 KamSwanton2225828297 2019-01-12 10
400 Areas To Consider Before Having A Home In Las Vegas 16610 HilarioWragge312 2019-01-12 10
399 تور استانبول CarrollJoiner7858055 2019-01-12 6
398 Info On Buying Gold LatriceChun4997950 2019-01-12 10
397 Exercise To Lose Stomach Fat - Are You Aware What Really Works? ArnoldHzi3313985531 2019-01-12 20
396 The Power Transformer Importance And Uses